Autor Thema: WH1080 Reichweite / Empfangsmöglichkeiten  (Gelesen 2219 mal)

Offline Ranseyer

  • Sr. Member
  • ****
  • Beiträge: 684
    • Homepage
WH1080 Reichweite / Empfangsmöglichkeiten
« am: 19 Mai 2017, 08:38:44 »
Hi,

ich habe mir spontan eine WH1080 zugelegt um ein paar bestimmte Wetterdaten zu ergänzen.
Die WH1080 ist im Moment per Signalsduino/CC1101 angebunden. (10 Meter Entfernung, eine Wand. RSSI -78 bis -75; mir ist unklar welcher RSSI hier beim CC1101 erforderlich ist...)
Ob der SDUINO wirklich zu 100% richtig konfiguriert ist, ist mir unklar: ccconf: freq:868.300MHz bWidth:812KHz rAmpl:42dB sens:4dB (DataRate:5603.79Baud)

Es wird automatisch angelegt: WH1080 und später dann irgenwann mal: CTW600.

Die Config sieht so aus:

Zitat
define sduino SIGNALduino /dev/serial/by-id/usb-FTDI_FT232R_USB_UART_A900KU01-if00-port0@57600
attr sduino cc1101_frequency 868.300
attr sduino flashCommand avrdude -c arduino -b 57600 -P [PORT] -p atmega328p -vv -U flash:w:[HEXFILE] 2>[LOGFILE]
attr sduino hardware nanoCC1101
attr sduino room 8.00_Zentral,TRX
attr sduino verbose 4
attr sduino whitelist_IDs 9
...

define WH1080 SD_WS09 WH1080
attr WH1080 room SD_WS09
define FileLog_WH1080 FileLog ./log/WH1080-%Y.log WH1080
attr FileLog_WH1080 logtype text
attr FileLog_WH1080 room SD_WS09
define CTW600 SD_WS09 CTW600
attr CTW600 room SD_WS09
define FileLog_CTW600 FileLog ./log/CTW600-%Y.log CTW600
attr FileLog_CTW600 logtype text
attr FileLog_CTW600 room SD_WS09


Meine Frage: Ist das Problem
A) verfälschte Daten durch schlechten Empfang ?
B) Ein simples SW Problem ?

PS: Ich würde den Empfang am liebsten auf einen MAPLE-CUL verlagern. Wäre das ohne größeren Aufwand machbar wenn ich den MAPLE CUl mit JeeLink  Oprion compiliere ?


Die Daten kommen nur selten in FHEM an:017-05-19_01:53:22 WH1080 id: 241
2017-05-19_01:53:22 WH1080 T: 17.4  H: 73  Ws: 0.3  Wg: 1.0  Wd: NW  R: 5.7
2017-05-19_01:53:22 WH1080 temperature: 17.4
2017-05-19_01:53:22 WH1080 humidity: 73
2017-05-19_01:53:22 WH1080 battery: ok
2017-05-19_01:53:22 WH1080 rain: 5.7
2017-05-19_01:53:22 WH1080 windGust: 1.0
2017-05-19_01:53:22 WH1080 windSpeed: 0.3
2017-05-19_01:53:22 WH1080 windDirection: 14
2017-05-19_01:53:22 WH1080 windDirectionDegree: 315
2017-05-19_01:53:22 WH1080 windDirectionText: NW
2017-05-19_03:13:22 WH1080 id: 241
2017-05-19_03:13:22 WH1080 T: 16.4  H: 79  Ws: 0.7  Wg: 1.4  Wd: N  R: 5.7
2017-05-19_03:13:22 WH1080 temperature: 16.4
2017-05-19_03:13:22 WH1080 humidity: 79
2017-05-19_03:13:22 WH1080 battery: ok
2017-05-19_03:13:22 WH1080 rain: 5.7
2017-05-19_03:13:22 WH1080 windGust: 1.4
2017-05-19_03:13:22 WH1080 windSpeed: 0.7
2017-05-19_03:13:22 WH1080 windDirection: 0
2017-05-19_03:13:22 WH1080 windDirectionDegree: 0
2017-05-19_03:13:22 WH1080 windDirectionText: N
2017-05-19_04:34:58 WH1080 id: 241
2017-05-19_04:34:58 WH1080 T: 14.7  H: 92  Ws: 0.3  Wg: 1.0  Wd: N  R: 5.7
2017-05-19_04:34:58 WH1080 temperature: 14.7
2017-05-19_04:34:58 WH1080 humidity: 92
2017-05-19_04:34:58 WH1080 battery: ok
2017-05-19_04:34:58 WH1080 rain: 5.7
2017-05-19_04:34:58 WH1080 windGust: 1.0
2017-05-19_04:34:58 WH1080 windSpeed: 0.3
2017-05-19_04:34:58 WH1080 windDirection: 0
2017-05-19_04:34:58 WH1080 windDirectionDegree: 0
2017-05-19_04:34:58 WH1080 windDirectionText: N
2017-05-19_04:44:34 WH1080 id: 241
2017-05-19_04:44:34 WH1080 T: 14.9  H: 90  Ws: 0.0  Wg: 0.3  Wd: S  R: 5.7
2017-05-19_04:44:34 WH1080 temperature: 14.9
2017-05-19_04:44:34 WH1080 humidity: 90
2017-05-19_04:44:34 WH1080 battery: ok
2017-05-19_04:44:34 WH1080 rain: 5.7
2017-05-19_04:44:34 WH1080 windGust: 0.3
2017-05-19_04:44:34 WH1080 windSpeed: 0.0
2017-05-19_04:44:34 WH1080 windDirection: 8
2017-05-19_04:44:34 WH1080 windDirectionDegree: 180
2017-05-19_04:44:34 WH1080 windDirectionText: S
2017-05-18_13:07:47 CTW600 id: 49
2017-05-18_13:07:47 CTW600 T: 25  H: 47  Ws: 6.4  Wg: 9.5  Wd: NW  R: 5.7
2017-05-18_13:07:47 CTW600 temperature: 25
2017-05-18_13:07:47 CTW600 humidity: 47
2017-05-18_13:07:47 CTW600 battery: 5
2017-05-18_13:07:47 CTW600 rain: 5.7
2017-05-18_13:07:47 CTW600 windGust: 9.5
2017-05-18_13:07:47 CTW600 windSpeed: 6.4
2017-05-18_13:07:47 CTW600 windDirection: 14
2017-05-18_13:07:47 CTW600 windDirectionDegree: 315
2017-05-18_13:07:47 CTW600 windDirectionText: NW
2017-05-18_13:53:23 CTW600 id: 49
2017-05-18_13:53:23 CTW600 T: 24  H: 51  Ws: 5.4  Wg: 9.5  Wd: NW  R: 5.7
2017-05-18_13:53:23 CTW600 temperature: 24
2017-05-18_13:53:23 CTW600 humidity: 51
2017-05-18_13:53:23 CTW600 battery: 5
2017-05-18_13:53:23 CTW600 rain: 5.7
2017-05-18_13:53:23 CTW600 windGust: 9.5
2017-05-18_13:53:23 CTW600 windSpeed: 5.4
2017-05-18_13:53:23 CTW600 windDirection: 14
2017-05-18_13:53:23 CTW600 windDirectionDegree: 315
2017-05-18_13:53:23 CTW600 windDirectionText: NW
2017-05-18_14:49:23 CTW600 id: 49
2017-05-18_14:49:23 CTW600 T: 27  H: 46  Ws: 3.2  Wg: 5.4  Wd: N  R: 5.7
2017-05-18_14:49:23 CTW600 temperature: 27
2017-05-18_14:49:23 CTW600 humidity: 46
2017-05-18_14:49:23 CTW600 battery: 5
2017-05-18_14:49:23 CTW600 rain: 5.7
2017-05-18_14:49:23 CTW600 windGust: 5.4
2017-05-18_14:49:23 CTW600 windSpeed: 3.2
2017-05-18_14:49:23 CTW600 windDirection: 0
2017-05-18_14:49:23 CTW600 windDirectionDegree: 0
2017-05-18_14:49:23 CTW600 windDirectionText: N
2017-05-19_08:13:21 CTW600 id: 49
2017-05-19_08:13:21 CTW600 T: 15.4  H: 84  Ws: 0.0  Wg: 1.4  Wd: SE  R: 5.7
2017-05-19_08:13:21 CTW600 temperature: 15.4
2017-05-19_08:13:21 CTW600 humidity: 84
2017-05-19_08:13:21 CTW600 battery: 5
2017-05-19_08:13:21 CTW600 rain: 5.7
2017-05-19_08:13:21 CTW600 windGust: 1.4
2017-05-19_08:13:21 CTW600 windSpeed: 0.0
2017-05-19_08:13:21 CTW600 windDirection: 6
2017-05-19_08:13:21 CTW600 windDirectionDegree: 135
2017-05-19_08:13:21 CTW600 windDirectionText: SE


Im Logfile jedoch ständige Einträge:
2017.05.19 08:23:33 4: sduino/keepalive ok, retry = 0
2017.05.19 08:23:45 4: sduino/msg READ: MU;P0=476;P1=-1079;P2=1428;P4=108;D=010121010101012121210121210121212101210121014;CP=0;R=1;
2017.05.19 08:23:45 4: sduino: Fingerprint for MU Protocol id 9 -> CTW 600 matches, trying to demodulate
2017.05.19 08:23:45 4: sduino/msg READ: MU;P0=1476;P1=-967;P2=480;P3=-5464;D=0101210101010101010101010101012101012121010101010121210123;CP=0;R=246;
2017.05.19 08:23:45 4: sduino: Fingerprint for MU Protocol id 9 -> CTW 600 matches, trying to demodulate
2017.05.19 08:23:45 4: sduino/msg READ: MU;P0=-31008;P1=485;P2=772;P3=184;P4=-92;P5=112;P7=1481;D=23452127012121212121212127212721212121272727212727212727272127212721212721272127212727272722;CP=1;R=246;
2017.05.19 08:23:45 4: sduino/msg READ: MU;P0=254;P1=-180;P2=429;P3=-967;P4=1471;P6=-10212;P7=824;D=0123434323434343434343234343434343434343434343432343067;CP=4;R=247;
2017.05.19 08:23:45 4: sduino: Fingerprint for MU Protocol id 9 -> CTW 600 matches, trying to demodulate
2017.05.19 08:24:33 4: sduino/msg READ: MU;P0=469;P1=-989;P4=1468;P5=688;P6=-5708;D=010101010101010101410141010101014141410141410141415601010;CP=0;R=3;
2017.05.19 08:24:33 4: sduino: Fingerprint for MU Protocol id 9 -> CTW 600 matches, trying to demodulate
2017.05.19 08:24:33 4: sduino/keepalive ok, retry = 0
2017.05.19 08:25:21 4: sduino/msg READ: MU;P0=-9324;P1=116;P2=-1018;P3=278;P4=482;P5=1470;P6=692;P7=-5796;D=0123242525252425242524252525252525252524252525252525252424252525252525252525252524267323;CP=5;R=250;
2017.05.19 08:25:21 4: sduino: Fingerprint for MU Protocol id 9 -> CTW 600 matches, trying to demodulate
2017.05.19 08:25:21 4: sduino/msg READ: MU;P0=248;P1=-112;P2=112;P3=-1031;P4=503;P5=1449;P6=900;D=012343534343434353535343535343535353435343435353534353435343535353536;CP=4;R=248;
2017.05.19 08:25:21 4: sduino: Fingerprint for MU Protocol id 9 -> CTW 600 matches, trying to demodulate
2017.05.19 08:25:33 4: sduino/keepalive ok, retry = 0
2017.05.19 08:26:09 4: sduino/msg READ: MU;P0=-3376;P1=481;P2=-979;P3=1445;P5=-5228;D=012121212121212123212321212121232323212323212323232123212123232321235;CP=1;R=249;
2017.05.19 08:26:09 4: sduino: Fingerprint for MU Protocol id 9 -> CTW 600 matches, trying to demodulate
2017.05.19 08:26:09 4: sduino/msg READ: MU;P0=112;P1=-963;P2=1484;P3=493;D=01213121212121212121212121212131212131312121212121313121212121213121313;CP=2;R=248;
2017.05.19 08:26:09 4: sduino: Fingerprint for MU Protocol id 9 -> CTW 600 matches, trying to demodulate
2017.05.19 08:26:33 4: sduino/keepalive ok, retry = 0
2017.05.19 08:26:57 4: sduino/msg READ: MU;P0=156;P1=-995;P3=1467;P4=392;P5=-5176;P7=-268;D=1313131313131313131313131313131313131313131313131313145070101;CP=3;R=249;
2017.05.19 08:26:57 4: sduino: Fingerprint for MU Protocol id 9 -> CTW 600 matches, trying to demodulate
2017.05.19 08:26:57 4: sduino/msg READ: MU;P0=-148;P1=132;P2=479;P3=-991;P4=1427;P5=-30988;P7=-5076;D=010234323234343434343232343232343232323232523232323232323234323432323232347;CP=2;R=249;
2017.05.19 08:26:57 4: sduino: Fingerprint for MU Protocol id 9 -> CTW 600 matches, trying to demodulate
2017.05.19 08:26:57 4: sduino/msg READ: MU;P0=112;P1=-1093;P2=1468;P3=477;P4=288;P5=-5028;P6=-180;D=0121312121213121313121212131213121312121212121212121212121212121212121212121454641;CP=2;R=249;
2017.05.19 08:26:57 4: sduino: Fingerprint for MU Protocol id 9 -> CTW 600 matches, trying to demodulate
2017.05.19 08:27:33 4: sduino/keepalive ok, retry = 0
2017.05.19 08:27:45 4: sduino/msg READ: MU;P0=228;P1=-102;P4=-975;P5=495;P6=1457;P7=-5916;D=01010454645454646464546454645464646464646464646454646464646464645464646464646464646464645464645454646464645464570;CP=6;R=248;
2017.05.19 08:27:45 4: sduino: Fingerprint for MU Protocol id 9 -> CTW 600 matches, trying to demodulate
2017.05.19 08:28:33 4: sduino/msg READ: MU;P0=-14720;P1=527;P2=-1074;P4=1481;P5=304;P6=-102;P7=132;D=01212121212121212421242121212124242421242421242424212421212421242124212421242424242424242424212424242424242124242424242424242424242567612;CP=1;R=248;
2017.05.19 08:28:33 4: sduino: Fingerprint for MU Protocol id 9 -> CTW 600 matches, trying to demodulate
2017.05.19 08:28:33 4: sduino: decoded matched MU Protocol id 9 dmsg P9#FF5E245AA80204000 length 68 RSSI = -78
2017.05.19 08:28:33 3: sduino: SD_WS09_Parse CRC_AUS:0 Model=undef
2017.05.19 08:28:33 3: sduino: SD_WS09_Parse0 Bin=11111111010111100010010001011010101010000000001000000100000000000000 syncp=1 length:68
2017.05.19 08:28:33 3: sduino: SD_WS09_Parse CRC_Error:  msg=P9#FF5E245AA80204000 CRC=156
2017.05.19 08:28:33 3: sduino: Unknown code P9#FF5E245AA80204000, help me!
2017.05.19 08:28:33 4: sduino/msg READ: MU;P0=152;P1=-974;P2=1460;P3=506;P5=-5192;P6=92;D=0121213121213121212131213131213121312131213121356;CP=3;R=6;
2017.05.19 08:28:33 4: sduino: Fingerprint for MU Protocol id 9 -> CTW 600 matches, trying to demodulate
2017.05.19 08:28:33 4: sduino/msg READ: MU;P0=132;P1=-959;P2=1484;P3=502;P4=-28396;D=01212121212131212121212121212121212121312121313121212121312121213131313131312134;CP=2;R=249;
2017.05.19 08:28:33 4: sduino: Fingerprint for MU Protocol id 9 -> CTW 600 matches, trying to demodulate
2017.05.19 08:28:33 4: sduino/keepalive ok, retry = 0
2017.05.19 08:29:21 4: sduino/msg READ: MU;P0=-30100;P1=479;P2=-974;P3=1465;P4=161;P5=-156;D=01212121212121212321232121212123232321240454;CP=1;R=5;
2017.05.19 08:29:21 4: sduino: Fingerprint for MU Protocol id 9 -> CTW 600 matches, trying to demodulate
2017.05.19 08:29:21 4: sduino/msg READ: MU;P0=-980;P1=1474;P2=480;D=01010101010101010102010102020101010102010101020102020;CP=1;R=4;
2017.05.19 08:29:21 4: sduino: Fingerprint for MU Protocol id 9 -> CTW 600 matches, trying to demodulate
2017.05.19 08:29:33 4: sduino/keepalive ok, retry = 0
2017.05.19 08:30:00 3: CUL_HM set EG.WG.Clima desired-temp 18.0
2017.05.19 08:30:09 4: sduino/msg READ: MU;P0=-1039;P1=496;P2=1422;P3=980;P4=-5408;P7=-352;D=010201020102020202020202010101020202020102020202020202020202020202020102020101020202020201034201017;CP=2;R=0;
2017.05.19 08:30:09 4: sduino: Fingerprint for MU Protocol id 9 -> CTW 600 matches, trying to demodulate
2017.05.19 08:30:09 4: sduino/msg READ: MU;P0=156;P1=-112;P2=248;P3=-982;P4=1446;P5=480;P6=788;P7=-5064;D=012343434343434353434353534343434343534353434353670;CP=4;R=6;
2017.05.19 08:30:09 4: sduino: Fingerprint for MU Protocol id 9 -> CTW 600 matches, trying to demodulate
2017.05.19 08:30:33 4: sduino/keepalive ok, retry = 0
2017.05.19 08:30:57 4: sduino/msg READ: MU;P0=-1984;P1=1460;P2=-961;P3=490;D=01232121212321232321232123212321232121212121212123232321212121232121;CP=3;R=248;
2017.05.19 08:30:57 4: sduino: Fingerprint for MU Protocol id 9 -> CTW 600 matches, trying to demodulate
2017.05.19 08:31:07 3: Wetter: malformed JSON string, neither array, object, number, string or atom, at character offset 0 (before "<!doctype html publi...") at FHEM/YahooWeatherAPI.pm line 247.

2017.05.19 08:31:33 4: sduino/keepalive ok, retry = 0
2017.05.19 08:31:45 4: sduino/msg READ: MU;P0=-1026;P1=445;P3=1399;P4=-31012;P5=1064;D=01010303030303030103010303030303010341010101010101010301030101010105;CP=1;R=1;
2017.05.19 08:31:45 4: sduino: Fingerprint for MU Protocol id 9 -> CTW 600 matches, trying to demodulate
2017.05.19 08:31:45 4: sduino/msg READ: MU;P0=224;P1=-1019;P2=488;P3=1450;D=012121313131213121312131313131313131312131;CP=3;R=1;
2017.05.19 08:31:45 4: sduino: Fingerprint for MU Protocol id 9 -> CTW 600 matches, trying to demodulate
2017.05.19 08:31:45 4: sduino/msg READ: MU;P0=-268;P1=212;P2=-160;P4=-960;P5=1471;P6=503;P7=-30468;D=012145454546454545454545454545454545454645454646454545454545464546454545454546457;CP=5;R=249;
2017.05.19 08:31:45 4: sduino: Fingerprint for MU Protocol id 9 -> CTW 600 matches, trying to demodulate
2017.05.19 08:32:33 4: sduino/msg READ: MU;P0=481;P1=1443;P2=-226;P4=134;P6=708;P7=-995;D=242426707070707070707170717070707071717170717170717171707170707170717071707171707071717171717170717171717171707171717171717171717171717170717170707171717171707071717;CP=0;R=248;
2017.05.19 08:32:33 4: sduino: Fingerprint for MU Protocol id 9 -> CTW 600 matches, trying to demodulate
2017.05.19 08:32:33 4: sduino: decoded matched MU Protocol id 9 dmsg P9#FEBC48B54C0810004C18 length 80 RSSI = -78
2017.05.19 08:32:33 3: sduino: SD_WS09_Parse CRC_AUS:0 Model=undef
2017.05.19 08:32:33 3: sduino: SD_WS09_Parse0 Bin=11111110101111000100100010110101010011000000100000010000000000000100110000011000 syncp=0 length:80
2017.05.19 08:32:33 3: sduino: SD_WS09_Parse CTW600:   Model=CTW600 attr=undef
2017.05.19 08:32:33 3: sduino: SD_WS09_Parse CTW600 EXIT: msg=11111110101111000100100010110101010011000000100000010000000000000100110000011000 wh:11111110 length:80
2017.05.19 08:32:33 3: sduino: SD_WS09_Parse CTW WH=11111110 msg=101111000100100010110101010011000000100000010000000000000100110000011000 syncp=0 length:72
2017.05.19 08:32:33 3: sduino: SD_WS09_Parse Id: 1011 NN1:00 NN2:0000
2017.05.19 08:32:33 3: sduino: SD_WS09_Parse Id: 1011 Bin-Sync=101111000100100010110101010011000000100000010000000000000100110000011000 syncp=0 length:72
2017.05.19 08:32:33 3: sduino: SD_WS09_Parse CTW600 Windspeed bit: 00001000 Dec: 2.1
2017.05.19 08:32:33 3: sduino: SD_WS09_Parse CTW600 Windguest bit: 00010000 Dec: 5.4
2017.05.19 08:32:33 3: sduino: SD_WS09_Parse CTW600 Rain bit: 0000000000010011 Dec: 5.7
2017.05.19 08:32:33 3: sduino: SD_WS09_Parse CTW600 id:49 :101111000100100010110101010011000000100000010000000000000100110000011000
2017.05.19 08:32:33 4: sduino/keepalive ok, retry = 0
2017.05.19 08:33:21 4: sduino/msg READ: MU;P0=-26646;P1=481;P2=-968;P3=1477;D=01212121212121212321232121212123232321232321232323212321212321232123212323212123232323232121232323232321232321232323232323232323232321232321212323232323212123212321232121232101212121212121212321232121212123232321232321232323212321212321232123212323212123;CP=1;R=253;O;
2017.05.19 08:33:21 4: sduino: Fingerprint for MU Protocol id 9 -> CTW 600 matches, trying to demodulate
2017.05.19 08:33:21 4: sduino: decoded matched MU Protocol id 9 dmsg P9#FF5E245AA60C1200260D58 length 88 RSSI = -75.5
2017.05.19 08:33:21 3: sduino: SD_WS09_Parse CRC_AUS:0 Model=undef
2017.05.19 08:33:21 3: sduino: SD_WS09_Parse0 Bin=1111111101011110001001000101101010100110000011000001001000000000001001100000110101011000 syncp=1 length:88
2017.05.19 08:33:21 3: sduino: SD_WS09_Parse sync2 msg=P9#FFAF122D530609001306AC syncp=1 length:88
2017.05.19 08:33:21 3: sduino: SD_WS09_Parse CRC_Error:  msg=P9#FFAF122D530609001306AC CRC=49
2017.05.19 08:33:21 3: sduino: Unknown code P9#FF5E245AA60C1200260D58, help me!
2017.05.19 08:33:33 4: sduino/keepalive ok, retry = 0
« Letzte Änderung: 19 Mai 2017, 08:41:27 von Ranseyer »

Offline Ralf9

  • Developer
  • Hero Member
  • ****
  • Beiträge: 1797
Antw:WH1080 Reichweite / Empfangsmöglichkeiten
« Antwort #1 am: 19 Mai 2017, 09:27:38 »
Zitat
Es wird automatisch angelegt: WH1080 und später dann irgenwann mal: CTW600.

Es gibt im sduino das Attribut WS09_Model. Wenn das Attribut nicht definiert ist, wird die WH1080 nicht richtig erkannt.

Siehe auch in der device specific help:
   WS09_Model
   WS09_WSModel:undef -> check all, WH1080 -> support WH1080/WS0101 , CTW600 -> support CTW600

   WS09_CRCAUS
   WS09_CRCAUS:0,1
   WS09_CRCAUS = 0 is default -> check CRC Calculation for WH1080


Gruß Ralf
FHEM auf Cubietruck mit Igor-Image, SSD und  hmland + HM-CFG-USB-2,  HMUARTLGW Lan,   HM-LC-Bl1PBU-FM, HM-CC-RT-DN, HM-SEC-SC-2, HM-MOD-Re-8, HM-MOD-Em-8
HM-Wired:  HMW_IO_12_FM, HMW_Sen_SC_12_DR, Selbstbau IO-Module
SIGNALduino
Gefällt mir Gefällt mir x 1 Liste anzeigen

Offline Ranseyer

  • Sr. Member
  • ****
  • Beiträge: 684
    • Homepage
Antw:WH1080 Reichweite / Empfangsmöglichkeiten
« Antwort #2 am: 19 Mai 2017, 12:53:01 »
Danke, das scheint Besserung zu bringen.
ca. jede Stunde ein neuer Wert...

Ich schalte nun auch noch die CRC Prüfung ab (was mich etwas beunruhigt)

2017-05-19_09:37:21 WH1080 id: 241
2017-05-19_09:37:21 WH1080 T: 17.9  H: 73  Ws: 1.0  Wg: 1.7  Wd: N  R: 5.7
2017-05-19_09:37:21 WH1080 temperature: 17.9
2017-05-19_09:37:21 WH1080 humidity: 73
2017-05-19_09:37:21 WH1080 battery: ok
2017-05-19_09:37:21 WH1080 rain: 5.7
2017-05-19_09:37:21 WH1080 windGust: 1.7
2017-05-19_09:37:21 WH1080 windSpeed: 1.0
2017-05-19_09:37:21 WH1080 windDirection: 0
2017-05-19_09:37:21 WH1080 windDirectionDegree: 0
2017-05-19_09:37:21 WH1080 windDirectionText: N
2017-05-19_10:36:33 WH1080 id: 241
2017-05-19_10:36:33 WH1080 T: 17.9  H: 73  Ws: 0.3  Wg: 0.7  Wd: NW  R: 5.7
2017-05-19_10:36:33 WH1080 temperature: 17.9
2017-05-19_10:36:33 WH1080 humidity: 73
2017-05-19_10:36:33 WH1080 battery: ok
2017-05-19_10:36:33 WH1080 rain: 5.7
2017-05-19_10:36:33 WH1080 windGust: 0.7
2017-05-19_10:36:33 WH1080 windSpeed: 0.3
2017-05-19_10:36:33 WH1080 windDirection: 14
2017-05-19_10:36:33 WH1080 windDirectionDegree: 315
2017-05-19_10:36:33 WH1080 windDirectionText: NW
2017-05-19_11:21:21 WH1080 id: 241
2017-05-19_11:21:21 WH1080 T: 17.7  H: 73  Ws: 1.0  Wg: 1.7  Wd: NW  R: 5.7
2017-05-19_11:21:21 WH1080 temperature: 17.7
2017-05-19_11:21:21 WH1080 humidity: 73
2017-05-19_11:21:21 WH1080 battery: ok
2017-05-19_11:21:21 WH1080 rain: 5.7
2017-05-19_11:21:21 WH1080 windGust: 1.7
2017-05-19_11:21:21 WH1080 windSpeed: 1.0
2017-05-19_11:21:21 WH1080 windDirection: 14
2017-05-19_11:21:21 WH1080 windDirectionDegree: 315
2017-05-19_11:21:21 WH1080 windDirectionText: NW
2017-05-19_11:47:45 WH1080 id: 241
2017-05-19_11:47:45 WH1080 T: 16.3  H: 79  Ws: 1.7  Wg: 3.1  Wd: NW  R: 5.7
2017-05-19_11:47:45 WH1080 temperature: 16.3
2017-05-19_11:47:45 WH1080 humidity: 79
2017-05-19_11:47:45 WH1080 battery: ok
2017-05-19_11:47:45 WH1080 rain: 5.7
2017-05-19_11:47:45 WH1080 windGust: 3.1
2017-05-19_11:47:45 WH1080 windSpeed: 1.7
2017-05-19_11:47:45 WH1080 windDirection: 14
2017-05-19_11:47:45 WH1080 windDirectionDegree: 315
2017-05-19_11:47:45 WH1080 windDirectionText: NW


Aber im FHEM Log gibt es alle paar Minuten Einträge:
2017.05.19 12:42:09 4: sduino/msg READ: MU;P0=-156;P1=176;P2=-1276;P3=1484;P4=-946;P5=541;P6=-10164;D=0123434543454343434345434345434343434343434343434345456;CP=3;R=237;
2017.05.19 12:42:09 4: sduino: Fingerprint for MU Protocol id 9 -> CTW 600 matches, trying to demodulate
2017.05.19 12:42:42 4: sduino/keepalive ok, retry = 0
2017.05.19 12:43:42 4: sduino/KeepAlive not ok, retry = 1 -> get ping
2017.05.19 12:43:42 4: sduino/msg READ: OK
2017.05.19 12:43:42 4: sduino/HandleWriteQueue: nothing to send, stopping timer
2017.05.19 12:43:45 4: sduino/msg READ: MU;P0=-92;P1=1480;P2=-968;P3=529;P5=-5808;D=0121232121232121212123232121212123212321235;CP=1;R=239;
2017.05.19 12:43:45 4: sduino: Fingerprint for MU Protocol id 9 -> CTW 600 matches, trying to demodulate
2017.05.19 12:43:45 4: sduino/msg READ: MU;P0=515;P1=-955;P2=1474;D=0121212101210121212121212121212121212101212101012121212101010121012101012121012;CP=2;R=239;
2017.05.19 12:43:45 4: sduino: Fingerprint for MU Protocol id 9 -> CTW 600 matches, trying to demodulate
2017.05.19 12:44:42 4: sduino/keepalive ok, retry = 0
2017.05.19 12:45:21 4: sduino/msg READ: MU;P0=-1820;P1=1028;P2=-962;P3=1481;P4=499;P5=-26768;D=0123242323232323232424232323232324232423232323232323232323232423232424232323232424242324242424242323235;CP=3;R=243;
2017.05.19 12:45:21 4: sduino: Fingerprint for MU Protocol id 9 -> CTW 600 matches, trying to demodulate
2017.05.19 12:45:42 4: sduino/keepalive ok, retry = 0
2017.05.19 12:46:09 4: sduino/msg READ: MU;P0=-2336;P1=1487;P2=-948;P3=516;P4=-22880;D=01212121212121212321212323212121212323232123232323232121214;CP=3;R=240;
2017.05.19 12:46:09 4: sduino: Fingerprint for MU Protocol id 9 -> CTW 600 matches, trying to demodulate
2017.05.19 12:46:09 4: sduino/msg READ: MU;P0=-16688;P1=268;P2=-224;P3=200;P4=-1328;P5=1473;P6=-958;P7=502;D=0123456767656565656567656765656565656565656565656765656767656565656767676567676767676565650;CP=5;R=240;
2017.05.19 12:46:09 4: sduino: Fingerprint for MU Protocol id 9 -> CTW 600 matches, trying to demodulate
2017.05.19 12:46:42 4: sduino/keepalive ok, retry = 0
2017.05.19 12:47:42 4: sduino/KeepAlive not ok, retry = 1 -> get ping
2017.05.19 12:47:42 4: sduino/msg READ: OK
2017.05.19 12:47:42 4: sduino/HandleWriteQueue: nothing to send, stopping timer
2017.05.19 12:47:45 4: sduino/msg READ: MU;P0=-1055;P1=200;P2=-146;P3=506;P4=1461;P5=376;P6=132;D=012123040403040404040404030404040404040404040404040404030404030304040404010506;CP=4;R=241;
2017.05.19 12:47:45 4: sduino: Fingerprint for MU Protocol id 9 -> CTW 600 matches, trying to demodulate
2017.05.19 12:48:33 4: sduino/msg READ: MU;P0=-180;P1=112;P2=507;P3=-956;P4=1479;P5=368;P6=-102;P7=248;D=232323232323232343234323232323434343234343234343434323432323234323432343432343434343434323432343434343432323234343434343567016;CP=2;R=246;
2017.05.19 12:48:33 4: sduino: Fingerprint for MU Protocol id 9 -> CTW 600 matches, trying to demodulate
2017.05.19 12:48:33 4: sduino: decoded matched MU Protocol id 9 dmsg P9#FF5E242EA40A0E0 length 60 RSSI = -79
2017.05.19 12:48:33 3: sduino: SD_WS09_Parse CRC_AUS:0 Model=WH1080
2017.05.19 12:48:33 3: sduino: SD_WS09_Parse0 Bin=111111110101111000100100001011101010010000001010000011100000 syncp=1 length:60
2017.05.19 12:48:33 3: sduino: SD_WS09_Parse EXIT: msg=FF5E242EA40A0E0 syncp=1 length:60
2017.05.19 12:48:33 3: sduino: SD_WS09_Parse CRC_AUS:0 Model=WH1080
2017.05.19 12:48:33 3: sduino: SD_WS09_Parse0 Bin=111111110101111000100100001011101010010000001010000011100000 syncp=1 length:60
2017.05.19 12:48:33 3: sduino: SD_WS09_Parse EXIT: msg=FF5E242EA40A0E0 syncp=1 length:60
2017.05.19 12:48:33 3: sduino: Unknown code P9#FF5E242EA40A0E0, help me!
2017.05.19 12:48:42 4: sduino/keepalive ok, retry = 0


Die Config:
Zitat
define sduino SIGNALduino /dev/serial/by-id/usb-FTDI_FT232R_USB_UART_A900KU01-if00-port0@57600
attr sduino WS09_WSModel WH1080
attr sduino cc1101_frequency 868.300
attr sduino flashCommand avrdude -c arduino -b 57600 -P [PORT] -p atmega328p -vv -U flash:w:[HEXFILE] 2>[LOGFILE]
attr sduino hardware nanoCC1101
attr sduino room 8.00_Zentral,TRX
attr sduino verbose 4
attr sduino whitelist_IDs 9

Offline Ralf9

  • Developer
  • Hero Member
  • ****
  • Beiträge: 1797
Antw:WH1080 Reichweite / Empfangsmöglichkeiten
« Antwort #3 am: 19 Mai 2017, 19:27:15 »
Ich habe es mal hier gepostet, vieleicht hat pejonp eine Idee
https://forum.fhem.de/index.php/topic,39451.msg637528.html#msg637528
FHEM auf Cubietruck mit Igor-Image, SSD und  hmland + HM-CFG-USB-2,  HMUARTLGW Lan,   HM-LC-Bl1PBU-FM, HM-CC-RT-DN, HM-SEC-SC-2, HM-MOD-Re-8, HM-MOD-Em-8
HM-Wired:  HMW_IO_12_FM, HMW_Sen_SC_12_DR, Selbstbau IO-Module
SIGNALduino

Offline SabineT

  • Full Member
  • ***
  • Beiträge: 169
Antw:WH1080 Reichweite / Empfangsmöglichkeiten
« Antwort #4 am: 19 Mai 2017, 20:51:21 »
bei mir wird zeitweise fast jede Aussendung von der WH1080 dekodiert, dann wieder nur alle paar Minuten.
2017.05.19 20:45:04 4: sduino868/msg READ: MU;P0=-2896;P1=481;P2=-982;P3=1459;D=012121212121212123212323212323232323232323212323212123232321232323212123212321232323232321212323232323232121212323232323232321212123212123232123232323232121232123212321212121;CP=1;R=249;
2017.05.19 20:45:04 4: sduino868: Fingerprint for MU Protocol id 27 -> remote27 matches, trying to demodulate
2017.05.19 20:45:04 4: sduino868: Fingerprint for MU Protocol id 28 -> IC Ledspot matches, trying to demodulate
2017.05.19 20:45:04 4: sduino868: Fingerprint for MU Protocol id 31 -> pollin isotronic matches, trying to demodulate
2017.05.19 20:45:04 4: sduino868: Fingerprint for MU Protocol id 36 -> socket36 matches, trying to demodulate
2017.05.19 20:45:04 4: sduino868: Fingerprint for MU Protocol id 48 -> TFA Dostmann matches, trying to demodulate
2017.05.19 20:45:04 4: sduino868: Fingerprint for MU Protocol id 5 -> unitec6899 matches, trying to demodulate
2017.05.19 20:45:04 4: sduino868: decoded matched MU Protocol id 5 dmsg p5#00B7FB3B95F3F1FC4DF2A0 length 88 RSSI = -77.5
2017.05.19 20:45:04 4: sduino868: Fingerprint for MU Protocol id 50 -> optus_XT300 matches, trying to demodulate
2017.05.19 20:45:04 4: sduino868: Fingerprint for MU Protocol id 63 -> Warema matches, trying to demodulate
2017.05.19 20:45:04 4: sduino868: decoded matched MU Protocol id 63 dmsg u630094AAAA5152A24AA8AAA155508A554490 length 136 RSSI = -77.5
2017.05.19 20:45:04 3: sduino868: Unknown code u630094AAAA5152A24AA8AAA155508A554490, help me!
2017.05.19 20:45:04 4: sduino868: Fingerprint for MU Protocol id 64 -> WH2 matches, trying to demodulate
2017.05.19 20:45:04 4: sduino868: Fingerprint for MU Protocol id 8 -> TX3 Protocol matches, trying to demodulate
2017.05.19 20:45:04 4: sduino868: Fingerprint for MU Protocol id 9 -> CTW 600 matches, trying to demodulate
2017.05.19 20:45:04 4: sduino868: decoded matched MU Protocol id 9 dmsg P9#FF4804C46A0C0E03B20D5C length 88 RSSI = -77.5
2017.05.19 20:45:04 3: sduino868: SD_WS09_Parse CRC_AUS:0 Model=WH1080
2017.05.19 20:45:04 3: sduino868: SD_WS09_Parse0 Bin=1111111101001000000001001100010001101010000011000000111000000011101100100000110101011100 syncp=1 length:88
2017.05.19 20:45:04 3: sduino868: SD_WS09_Parse sync2 msg=P9#FFA4026235060701D906AE syncp=1 length:88
2017.05.19 20:45:04 3: sduino868: SD_WS09_Parse CRC_Error:  msg=P9#FFA4026235060701D906AE CRC=49
2017.05.19 20:45:04 3: sduino868: SD_WS09_Parse CRC_AUS:0 Model=WH1080
2017.05.19 20:45:04 3: sduino868: SD_WS09_Parse0 Bin=1111111101001000000001001100010001101010000011000000111000000011101100100000110101011100 syncp=1 length:88
2017.05.19 20:45:04 3: sduino868: SD_WS09_Parse sync2 msg=P9#FFA4026235060701D906AE syncp=1 length:88
2017.05.19 20:45:04 3: sduino868: SD_WS09_Parse CRC_Error:  msg=P9#FFA4026235060701D906AE CRC=49
2017.05.19 20:45:04 3: sduino868: Unknown code P9#FF4804C46A0C0E03B20D5C, help me!
2017.05.19 20:45:11 4: sduino868/keepalive ok, retry = 0
2017.05.19 20:45:50 4: sduino868/msg READ: MU;P0=-31500;P1=487;P2=-986;P3=1456;D=01212121212121212321232321232323232323232321232321212323232123232321212321232123232323232123212323232323212123232323232323232121212321212323212323232323212123232121212323232301212121212121212321232321232323232323232321232321212323232123232321212321232123;CP=1;R=249;O;
2017.05.19 20:45:50 4: sduino868: Fingerprint for MU Protocol id 28 -> IC Ledspot matches, trying to demodulate
2017.05.19 20:45:50 4: sduino868: Fingerprint for MU Protocol id 31 -> pollin isotronic matches, trying to demodulate
2017.05.19 20:45:50 4: sduino868: Fingerprint for MU Protocol id 36 -> socket36 matches, trying to demodulate
2017.05.19 20:45:50 4: sduino868: Fingerprint for MU Protocol id 48 -> TFA Dostmann matches, trying to demodulate
2017.05.19 20:45:50 4: sduino868: Fingerprint for MU Protocol id 5 -> unitec6899 matches, trying to demodulate
2017.05.19 20:45:50 4: sduino868: decoded matched MU Protocol id 5 dmsg p5#00B7FB3B95F5F3FC4DF31C length 88 RSSI = -77.5
2017.05.19 20:45:50 4: sduino868: decoded matched MU Protocol id 5 dmsg p5#00B7FB3B94 length 40 RSSI = -77.5
2017.05.19 20:45:50 4: sduino868: Fingerprint for MU Protocol id 50 -> optus_XT300 matches, trying to demodulate
2017.05.19 20:45:50 4: sduino868: Fingerprint for MU Protocol id 63 -> Warema matches, trying to demodulate
2017.05.19 20:45:50 4: sduino868: decoded matched MU Protocol id 63 dmsg u630094AAAA5152A24AA92AA2AAA8452AA28550094AAAA5152A248 length 204 RSSI = -77.5
2017.05.19 20:45:50 3: sduino868: Unknown code u630094AAAA5152A24AA92AA2AAA8452AA28550094AAAA5152A248, help me!
2017.05.19 20:45:50 4: sduino868: Fingerprint for MU Protocol id 64 -> WH2 matches, trying to demodulate
2017.05.19 20:45:50 4: sduino868: Fingerprint for MU Protocol id 8 -> TX3 Protocol matches, trying to demodulate
2017.05.19 20:45:50 4: sduino868: Fingerprint for MU Protocol id 9 -> CTW 600 matches, trying to demodulate
2017.05.19 20:45:50 4: sduino868: decoded matched MU Protocol id 9 dmsg P9#FF4804C46A0A0C03B20CE0 length 88 RSSI = -77.5
2017.05.19 20:45:50 3: sduino868: SD_WS09_Parse CRC_AUS:0 Model=WH1080
2017.05.19 20:45:50 3: sduino868: SD_WS09_Parse0 Bin=1111111101001000000001001100010001101010000010100000110000000011101100100000110011100000 syncp=1 length:88
2017.05.19 20:45:50 3: sduino868: SD_WS09_Parse sync2 msg=P9#FFA4026235050601D90670 syncp=1 length:88
2017.05.19 20:45:50 3: sduino868: SD_WS09_Parse CRC_OK:  CRC=0 Model=WH1080 attr=WH1080
2017.05.19 20:45:50 3: sduino868: SD_WS09_Parse WH=11111111 msg=10100100000000100110001000110101000001010000011000000001110110010000011001110000 syncp=1 length:80
2017.05.19 20:45:50 3: sduino868: SD_WS09_Parse WH1080 id:64, Windspeed bit: 00000101 Dec: 1.7
2017.05.19 20:45:50 3: sduino868: SD_WS09_Parse WH1080 id:64, Windguest bit: 00000110 Dec: 2.0
2017.05.19 20:45:50 3: sduino868: SD_WS09_Parse WH1080 id:64, Rain bit: 11011001 Dec: 65.1
2017.05.19 20:45:50 3: sduino868: SD_WS09_Parse WH1080 id:64, bat:ok, temp=21, hum=53, winddir=6:SE wS=1.7, wG=2.0,
rain=65.1
2017.05.19 20:45:50 3: sduino868: SD_WS09_Parse WH1080 id:64 :10100100000000100110001000110101000001010000011000000001110110010000011001110000
2017.05.19 20:45:52 4: sduino868/msg READ: MU;P0=-995;P1=1454;P2=487;D=0102020101020101010101010202010101010101010102020201020201010201010101010202010102020201010101;CP=2;R=248;
2017.05.19 20:45:52 4: sduino868: Fingerprint for MU Protocol id 28 -> IC Ledspot matches, trying to demodulate
2017.05.19 20:45:52 4: sduino868: Fingerprint for MU Protocol id 31 -> pollin isotronic matches, trying to demodulate
2017.05.19 20:45:52 4: sduino868: Fingerprint for MU Protocol id 36 -> socket36 matches, trying to demodulate
2017.05.19 20:45:52 4: sduino868: Fingerprint for MU Protocol id 48 -> TFA Dostmann matches, trying to demodulate
2017.05.19 20:45:52 4: sduino868: Fingerprint for MU Protocol id 5 -> unitec6899 matches, trying to demodulate
2017.05.19 20:45:52 4: sduino868: decoded matched MU Protocol id 5 dmsg p5#9BF3FC4DF31C length 48 RSSI = -78
2017.05.19 20:45:52 4: sduino868: Fingerprint for MU Protocol id 50 -> optus_XT300 matches, trying to demodulate
2017.05.19 20:45:52 4: sduino868: Fingerprint for MU Protocol id 63 -> Warema matches, trying to demodulate
2017.05.19 20:45:52 4: sduino868: decoded matched MU Protocol id 63 dmsg u638A5551555422955142A8 length 80 RSSI = -78
2017.05.19 20:45:52 3: sduino868: Unknown code u638A5551555422955142A8, help me!
2017.05.19 20:45:52 4: sduino868: Fingerprint for MU Protocol id 64 -> WH2 matches, trying to demodulate
2017.05.19 20:45:52 4: sduino868: Fingerprint for MU Protocol id 8 -> TX3 Protocol matches, trying to demodulate
2017.05.19 20:45:52 4: sduino868: Fingerprint for MU Protocol id 9 -> CTW 600 matches, trying to demodulate
2017.05.19 20:46:11 4: sduino868/keepalive ok, retry = 0
2017.05.19 20:46:40 4: sduino868/msg READ: MU;P0=-24232;P1=482;P2=-978;P3=1456;D=012121212121212123212323212323232323232323212323212123232323212323212123212321232323232321232123232323232121212323232323232321212123212123232123232323232121232121212323232321;CP=1;R=249;
2017.05.19 20:46:40 4: sduino868: Fingerprint for MU Protocol id 27 -> remote27 matches, trying to demodulate
2017.05.19 20:46:40 4: sduino868: Fingerprint for MU Protocol id 28 -> IC Ledspot matches, trying to demodulate
2017.05.19 20:46:40 4: sduino868: Fingerprint for MU Protocol id 31 -> pollin isotronic matches, trying to demodulate
2017.05.19 20:46:40 4: sduino868: Fingerprint for MU Protocol id 36 -> socket36 matches, trying to demodulate
2017.05.19 20:46:40 4: sduino868: Fingerprint for MU Protocol id 48 -> TFA Dostmann matches, trying to demodulate
2017.05.19 20:46:40 4: sduino868: Fingerprint for MU Protocol id 5 -> unitec6899 matches, trying to demodulate
2017.05.19 20:46:40 4: sduino868: decoded matched MU Protocol id 5 dmsg p5#00B7FB3D95F5F1FC4DF23C length 88 RSSI = -77.5
2017.05.19 20:46:40 4: sduino868: Fingerprint for MU Protocol id 50 -> optus_XT300 matches, trying to demodulate
2017.05.19 20:46:40 4: sduino868: Fingerprint for MU Protocol id 63 -> Warema matches, trying to demodulate
2017.05.19 20:46:40 4: sduino868: decoded matched MU Protocol id 63 dmsg u630094AAAA5154A24AA92AA155508A55442A8 length 140 RSSI = -77.5
2017.05.19 20:46:40 3: sduino868: Unknown code u630094AAAA5154A24AA92AA155508A55442A8, help me!
2017.05.19 20:46:40 4: sduino868: Fingerprint for MU Protocol id 64 -> WH2 matches, trying to demodulate
2017.05.19 20:46:40 4: sduino868: Fingerprint for MU Protocol id 8 -> TX3 Protocol matches, trying to demodulate
2017.05.19 20:46:40 4: sduino868: Fingerprint for MU Protocol id 9 -> CTW 600 matches, trying to demodulate
2017.05.19 20:46:40 4: sduino868: decoded matched MU Protocol id 9 dmsg P9#FF4804C26A0A0E03B20DC0 length 88 RSSI = -77.5
2017.05.19 20:46:40 3: sduino868: SD_WS09_Parse CRC_AUS:0 Model=WH1080
2017.05.19 20:46:40 3: sduino868: SD_WS09_Parse0 Bin=1111111101001000000001001100001001101010000010100000111000000011101100100000110111000000 syncp=1 length:88
2017.05.19 20:46:40 3: sduino868: SD_WS09_Parse sync2 msg=P9#FFA4026135050701D906E0 syncp=1 length:88
2017.05.19 20:46:40 3: sduino868: SD_WS09_Parse CRC_Error:  msg=P9#FFA4026135050701D906E0 CRC=49
2017.05.19 20:46:40 3: sduino868: SD_WS09_Parse CRC_AUS:0 Model=WH1080
2017.05.19 20:46:40 3: sduino868: SD_WS09_Parse0 Bin=1111111101001000000001001100001001101010000010100000111000000011101100100000110111000000 syncp=1 length:88
2017.05.19 20:46:40 3: sduino868: SD_WS09_Parse sync2 msg=P9#FFA4026135050701D906E0 syncp=1 length:88
2017.05.19 20:46:40 3: sduino868: SD_WS09_Parse CRC_Error:  msg=P9#FFA4026135050701D906E0 CRC=49
2017.05.19 20:46:40 3: sduino868: Unknown code P9#FF4804C26A0A0E03B20DC0, help me!
2017.05.19 20:47:11 4: sduino868/keepalive ok, retry = 0
2017.05.19 20:47:26 4: sduino868/msg READ: MU;P0=-5208;P1=476;P2=-987;P3=1467;P4=-30984;D=01212121212121212321232321232323232323232321232321212323232321232321212321232123232323232121232323232323212121232323232323232121212321212323212323232323212123212321232321232141212121212121212321232321232323232323232321232321212323232321232321212321232123;CP=1;R=249;O;
2017.05.19 20:47:26 4: sduino868: Fingerprint for MU Protocol id 28 -> IC Ledspot matches, trying to demodulate
2017.05.19 20:47:26 4: sduino868: Fingerprint for MU Protocol id 31 -> pollin isotronic matches, trying to demodulate
2017.05.19 20:47:26 4: sduino868: Fingerprint for MU Protocol id 36 -> socket36 matches, trying to demodulate
2017.05.19 20:47:26 4: sduino868: Fingerprint for MU Protocol id 48 -> TFA Dostmann matches, trying to demodulate
2017.05.19 20:47:26 4: sduino868: Fingerprint for MU Protocol id 5 -> unitec6899 matches, trying to demodulate
2017.05.19 20:47:26 4: sduino868: decoded matched MU Protocol id 5 dmsg p5#00B7FB3D95F3F1FC4DF2B4 length 88 RSSI = -77.5
2017.05.19 20:47:26 4: sduino868: decoded matched MU Protocol id 5 dmsg p5#00B7FB3D94 length 40 RSSI = -77.5
2017.05.19 20:47:26 4: sduino868: Fingerprint for MU Protocol id 50 -> optus_XT300 matches, trying to demodulate
2017.05.19 20:47:26 4: sduino868: Fingerprint for MU Protocol id 63 -> Warema matches, trying to demodulate
2017.05.19 20:47:26 4: sduino868: decoded matched MU Protocol id 63 dmsg u630094AAAA5154A24AA8AAA155508A55449480252AAA94552892 length 200 RSSI = -77.5
2017.05.19 20:47:26 3: sduino868: Unknown code u630094AAAA5154A24AA8AAA155508A55449480252AAA94552892, help me!
2017.05.19 20:47:26 4: sduino868: Fingerprint for MU Protocol id 64 -> WH2 matches, trying to demodulate
2017.05.19 20:47:26 4: sduino868: Fingerprint for MU Protocol id 8 -> TX3 Protocol matches, trying to demodulate
2017.05.19 20:47:26 4: sduino868: Fingerprint for MU Protocol id 9 -> CTW 600 matches, trying to demodulate
2017.05.19 20:47:26 4: sduino868: decoded matched MU Protocol id 9 dmsg P9#FF4804C26A0C0E03B20D48 length 88 RSSI = -77.5
2017.05.19 20:47:26 3: sduino868: SD_WS09_Parse CRC_AUS:0 Model=WH1080
2017.05.19 20:47:26 3: sduino868: SD_WS09_Parse0 Bin=1111111101001000000001001100001001101010000011000000111000000011101100100000110101001000 syncp=1 length:88
2017.05.19 20:47:26 3: sduino868: SD_WS09_Parse sync2 msg=P9#FFA4026135060701D906A4 syncp=1 length:88
2017.05.19 20:47:26 3: sduino868: SD_WS09_Parse CRC_Error:  msg=P9#FFA4026135060701D906A4 CRC=49
2017.05.19 20:47:26 3: sduino868: SD_WS09_Parse CRC_AUS:0 Model=WH1080
2017.05.19 20:47:26 3: sduino868: SD_WS09_Parse0 Bin=1111111101001000000001001100001001101010000011000000111000000011101100100000110101001000 syncp=1 length:88
2017.05.19 20:47:26 3: sduino868: SD_WS09_Parse sync2 msg=P9#FFA4026135060701D906A4 syncp=1 length:88
2017.05.19 20:47:26 3: sduino868: SD_WS09_Parse CRC_Error:  msg=P9#FFA4026135060701D906A4 CRC=49
2017.05.19 20:47:26 3: sduino868: Unknown code P9#FF4804C26A0C0E03B20D48, help me!
2017.05.19 20:47:28 4: sduino868/msg READ: MU;P0=-993;P1=1448;P2=476;D=0102020101020101010101010202020101010101010102020201020201010201010101010202010201020101020102;CP=2;R=249;
2017.05.19 20:47:28 4: sduino868: Fingerprint for MU Protocol id 28 -> IC Ledspot matches, trying to demodulate
2017.05.19 20:47:28 4: sduino868: Fingerprint for MU Protocol id 31 -> pollin isotronic matches, trying to demodulate
2017.05.19 20:47:28 4: sduino868: Fingerprint for MU Protocol id 36 -> socket36 matches, trying to demodulate
2017.05.19 20:47:28 4: sduino868: Fingerprint for MU Protocol id 48 -> TFA Dostmann matches, trying to demodulate
2017.05.19 20:47:28 4: sduino868: Fingerprint for MU Protocol id 5 -> unitec6899 matches, trying to demodulate
2017.05.19 20:47:28 4: sduino868: decoded matched MU Protocol id 5 dmsg p5#9BF1FC4DF2B4 length 48 RSSI = -77.5
2017.05.19 20:47:28 4: sduino868: Fingerprint for MU Protocol id 50 -> optus_XT300 matches, trying to demodulate
2017.05.19 20:47:28 4: sduino868: Fingerprint for MU Protocol id 63 -> Warema matches, trying to demodulate
2017.05.19 20:47:28 4: sduino868: decoded matched MU Protocol id 63 dmsg u638A5550AAA8452AA24A4 length 76 RSSI = -77.5
2017.05.19 20:47:28 3: sduino868: Unknown code u638A5550AAA8452AA24A4, help me!
2017.05.19 20:47:28 4: sduino868: Fingerprint for MU Protocol id 64 -> WH2 matches, trying to demodulate
2017.05.19 20:47:28 4: sduino868: Fingerprint for MU Protocol id 8 -> TX3 Protocol matches, trying to demodulate
2017.05.19 20:47:28 4: sduino868: Fingerprint for MU Protocol id 9 -> CTW 600 matches, trying to demodulate
2017.05.19 20:48:11 4: sduino868/keepalive ok, retry = 0
2017.05.19 20:48:15 4: sduino868/msg READ: MU;P0=-32001;P1=486;P2=-977;P3=1459;D=012121212121212123212323212323232323232323212323212123232323212323212123212321232323232123232323232323212321232323232323232321212123212123232123232323232121232123232121232123;CP=1;R=249;
2017.05.19 20:48:15 4: sduino868: Fingerprint for MU Protocol id 27 -> remote27 matches, trying to demodulate
2017.05.19 20:48:15 4: sduino868: Fingerprint for MU Protocol id 28 -> IC Ledspot matches, trying to demodulate
2017.05.19 20:48:15 4: sduino868: Fingerprint for MU Protocol id 31 -> pollin isotronic matches, trying to demodulate
2017.05.19 20:48:15 4: sduino868: Fingerprint for MU Protocol id 36 -> socket36 matches, trying to demodulate
2017.05.19 20:48:15 4: sduino868: Fingerprint for MU Protocol id 48 -> TFA Dostmann matches, trying to demodulate
2017.05.19 20:48:15 4: sduino868: Fingerprint for MU Protocol id 5 -> unitec6899 matches, trying to demodulate
2017.05.19 20:48:15 4: sduino868: decoded matched MU Protocol id 5 dmsg p5#00B7FB3D95EFEBFC4DF2C8 length 88 RSSI = -77.5
2017.05.19 20:48:15 4: sduino868: Fingerprint for MU Protocol id 50 -> optus_XT300 matches, trying to demodulate
2017.05.19 20:48:15 4: sduino868: Fingerprint for MU Protocol id 63 -> Warema matches, trying to demodulate
2017.05.19 20:48:15 4: sduino868: decoded matched MU Protocol id 63 dmsg u630094AAAA5154A24AA555495554229551289 length 140 RSSI = -77.5
2017.05.19 20:48:15 3: sduino868: Unknown code u630094AAAA5154A24AA555495554229551289, help me!
2017.05.19 20:48:15 4: sduino868: Fingerprint for MU Protocol id 64 -> WH2 matches, trying to demodulate
2017.05.19 20:48:15 4: sduino868: Fingerprint for MU Protocol id 8 -> TX3 Protocol matches, trying to demodulate
2017.05.19 20:48:15 4: sduino868: Fingerprint for MU Protocol id 9 -> CTW 600 matches, trying to demodulate
2017.05.19 20:48:15 4: sduino868: decoded matched MU Protocol id 9 dmsg P9#FF4804C26A101403B20D34 length 88 RSSI = -77.5
2017.05.19 20:48:15 3: sduino868: SD_WS09_Parse CRC_AUS:0 Model=WH1080
2017.05.19 20:48:15 3: sduino868: SD_WS09_Parse0 Bin=1111111101001000000001001100001001101010000100000001010000000011101100100000110100110100 syncp=1 length:88
2017.05.19 20:48:15 3: sduino868: SD_WS09_Parse sync2 msg=P9#FFA4026135080A01D9069A syncp=1 length:88
2017.05.19 20:48:15 3: sduino868: SD_WS09_Parse CRC_OK:  CRC=0 Model=WH1080 attr=WH1080
2017.05.19 20:48:15 3: sduino868: SD_WS09_Parse WH=11111111 msg=10100100000000100110000100110101000010000000101000000001110110010000011010011010 syncp=1 length:80
2017.05.19 20:48:15 3: sduino868: SD_WS09_Parse WH1080 id:64, Windspeed bit: 00001000 Dec: 2.7
2017.05.19 20:48:15 3: sduino868: SD_WS09_Parse WH1080 id:64, Windguest bit: 00001010 Dec: 3.4
2017.05.19 20:48:15 3: sduino868: SD_WS09_Parse WH1080 id:64, Rain bit: 11011001 Dec: 65.1
2017.05.19 20:48:15 3: sduino868: SD_WS09_Parse WH1080 id:64, bat:ok, temp=20.9, hum=53, winddir=6:SE wS=2.7, wG=3.4, rain=65.1
2017.05.19 20:48:15 3: sduino868: SD_WS09_Parse WH1080 id:64 :10100100000000100110000100110101000010000000101000000001110110010000011010011010
2017.05.19 20:49:02 4: sduino868/msg READ: MU;P0=-31508;P1=478;P2=-982;P3=1467;D=01212121212121212321232321232323232323232321232321212323232323232321212321232123232323232123212323232323212121232323232323232121212321212323212323232321232323232323212321212101212121212121212321232321232323232323232321232321212323232323232321212321232123;CP=1;R=249;O;
2017.05.19 20:49:02 4: sduino868: Fingerprint for MU Protocol id 27 -> remote27 matches, trying to demodulate
2017.05.19 20:49:02 4: sduino868: Fingerprint for MU Protocol id 28 -> IC Ledspot matches, trying to demodulate
2017.05.19 20:49:02 4: sduino868: Fingerprint for MU Protocol id 31 -> pollin isotronic matches, trying to demodulate
2017.05.19 20:49:02 4: sduino868: Fingerprint for MU Protocol id 36 -> socket36 matches, trying to demodulate
2017.05.19 20:49:02 4: sduino868: Fingerprint for MU Protocol id 48 -> TFA Dostmann matches, trying to demodulate
2017.05.19 20:49:02 4: sduino868: Fingerprint for MU Protocol id 5 -> unitec6899 matches, trying to demodulate
2017.05.19 20:49:02 4: sduino868: decoded matched MU Protocol id 5 dmsg p5#00B7FB3F95F5F1FC4DEFD0 length 88 RSSI = -77.5
2017.05.19 20:49:02 4: sduino868: decoded matched MU Protocol id 5 dmsg p5#00B7FB3F94 length 40 RSSI = -77.5
2017.05.19 20:49:02 4: sduino868: Fingerprint for MU Protocol id 50 -> optus_XT300 matches, trying to demodulate
2017.05.19 20:49:02 4: sduino868: Fingerprint for MU Protocol id 63 -> Warema matches, trying to demodulate
2017.05.19 20:49:02 4: sduino868: decoded matched MU Protocol id 63 dmsg u630094AAAA51555125549550AAA8452A955480094AAAA51555124 length 204 RSSI = -77.5
2017.05.19 20:49:02 3: sduino868: Unknown code u630094AAAA51555125549550AAA8452A955480094AAAA51555124, help me!
2017.05.19 20:49:02 4: sduino868: Fingerprint for MU Protocol id 64 -> WH2 matches, trying to demodulate
2017.05.19 20:49:02 4: sduino868: Fingerprint for MU Protocol id 8 -> TX3 Protocol matches, trying to demodulate
2017.05.19 20:49:02 4: sduino868: Fingerprint for MU Protocol id 9 -> CTW 600 matches, trying to demodulate
2017.05.19 20:49:02 4: sduino868: decoded matched MU Protocol id 9 dmsg P9#FF4804C06A0A0E03B2102C length 88 RSSI = -77.5
2017.05.19 20:49:02 3: sduino868: SD_WS09_Parse CRC_AUS:0 Model=WH1080
2017.05.19 20:49:02 3: sduino868: SD_WS09_Parse0 Bin=1111111101001000000001001100000001101010000010100000111000000011101100100001000000101100 syncp=1 length:88
2017.05.19 20:49:02 3: sduino868: SD_WS09_Parse sync2 msg=P9#FFA4026035050701D90816 syncp=1 length:88
2017.05.19 20:49:02 3: sduino868: SD_WS09_Parse CRC_Error:  msg=P9#FFA4026035050701D90816 CRC=49
2017.05.19 20:49:02 3: sduino868: SD_WS09_Parse CRC_AUS:0 Model=WH1080
2017.05.19 20:49:02 3: sduino868: SD_WS09_Parse0 Bin=1111111101001000000001001100000001101010000010100000111000000011101100100001000000101100 syncp=1 length:88
2017.05.19 20:49:02 3: sduino868: SD_WS09_Parse sync2 msg=P9#FFA4026035050701D90816 syncp=1 length:88
2017.05.19 20:49:02 3: sduino868: SD_WS09_Parse CRC_Error:  msg=P9#FFA4026035050701D90816 CRC=49
2017.05.19 20:49:02 3: sduino868: Unknown code P9#FF4804C06A0A0E03B2102C, help me!
2017.05.19 20:49:02 4: sduino868/msg READ: MU;P0=-984;P1=1467;P2=477;D=0102020101020101010101010202020101010101010102020201020201010201010101020101010101010201020202;CP=2;R=249;
2017.05.19 20:49:02 4: sduino868: Fingerprint for MU Protocol id 27 -> remote27 matches, trying to demodulate
2017.05.19 20:49:02 4: sduino868: Fingerprint for MU Protocol id 28 -> IC Ledspot matches, trying to demodulate
2017.05.19 20:49:02 4: sduino868: Fingerprint for MU Protocol id 31 -> pollin isotronic matches, trying to demodulate
2017.05.19 20:49:02 4: sduino868: Fingerprint for MU Protocol id 36 -> socket36 matches, trying to demodulate
2017.05.19 20:49:02 4: sduino868: Fingerprint for MU Protocol id 48 -> TFA Dostmann matches, trying to demodulate
2017.05.19 20:49:02 4: sduino868: Fingerprint for MU Protocol id 5 -> unitec6899 matches, trying to demodulate
2017.05.19 20:49:02 4: sduino868: decoded matched MU Protocol id 5 dmsg p5#9BF1FC4DEFD0 length 48 RSSI = -77.5
2017.05.19 20:49:02 4: sduino868: Fingerprint for MU Protocol id 50 -> optus_XT300 matches, trying to demodulate
2017.05.19 20:49:02 4: sduino868: Fingerprint for MU Protocol id 63 -> Warema matches, trying to demodulate
2017.05.19 20:49:02 4: sduino868: decoded matched MU Protocol id 63 dmsg u638A5550AAA8452A95548 length 76 RSSI = -77.5
2017.05.19 20:49:02 3: sduino868: Unknown code u638A5550AAA8452A95548, help me!
2017.05.19 20:49:02 4: sduino868: Fingerprint for MU Protocol id 64 -> WH2 matches, trying to demodulate
2017.05.19 20:49:02 4: sduino868: Fingerprint for MU Protocol id 8 -> TX3 Protocol matches, trying to demodulate
2017.05.19 20:49:02 4: sduino868: Fingerprint for MU Protocol id 9 -> CTW 600 matches, trying to demodulate
2017.05.19 20:49:11 4: sduino868/keepalive ok, retry = 0
Die CC1101 Settings schaun bei mir so aus:
ccconf: freq:868.336MHz bWidth:135KHz rAmpl:42dB sens:8dB

Offline Ranseyer

  • Sr. Member
  • ****
  • Beiträge: 684
    • Homepage
Antw:WH1080 Reichweite / Empfangsmöglichkeiten
« Antwort #5 am: 19 Mai 2017, 21:27:04 »
Danke an euch beiden.  Ich habe mal die Frequenzeinstellungen geändert siehe SabineT. Diese sind stark abweichend von meinem Default-Stand.

Offline Ranseyer

  • Sr. Member
  • ****
  • Beiträge: 684
    • Homepage
Antw:WH1080 Reichweite / Empfangsmöglichkeiten
« Antwort #6 am: 19 Mai 2017, 21:43:52 »
Ergebnis: Letzte Wetterdaten sind von heute 11:40 Uhr.

Das Log immer noch:
Zitat
2017.05.19 21:38:56 4: sduino: Fingerprint for MU Protocol id 9 -> CTW 600 matches, trying to demodulate
2017.05.19 21:38:56 4: sduino: decoded matched MU Protocol id 9 dmsg P9#FF5E23C6C206080054140C length 88 RSSI = -78.5
2017.05.19 21:38:56 3: sduino: SD_WS09_Parse CRC_AUS:1 Model=WH1080
2017.05.19 21:38:56 3: sduino: SD_WS09_Parse0 Bin=1111111101011110001000111100011011000010000001100000100000000000010101000001010000001100 syncp=1 length:88
2017.05.19 21:38:56 3: sduino: SD_WS09_Parse4 Exit: msg=FF5E23C6C206080054140C syncp=1 length:80
2017.05.19 21:38:56 3: sduino: SD_WS09_WH10 Exit:  off=WH1080 Model=undef
2017.05.19 21:38:56 3: sduino: SD_WS09_Parse CRC_AUS:1 Model=WH1080
2017.05.19 21:38:56 3: sduino: SD_WS09_Parse0 Bin=1111111101011110001000111100011011000010000001100000100000000000010101000001010000001100 syncp=1 length:88
2017.05.19 21:38:56 3: sduino: SD_WS09_Parse4 Exit: msg=FF5E23C6C206080054140C syncp=1 length:80
2017.05.19 21:38:56 3: sduino: SD_WS09_WH10 Exit:  off=WH1080 Model=undef
2017.05.19 21:38:56 3: sduino: Unknown code P9#FF5E23C6C206080054140C, help me!
2017.05.19 21:38:56 4: sduino/msg READ: MU;P0=-979;P1=1460;P2=494;D=0101010101020201010101010201010101010101010101010102010201020101010101020102010101010101020201;CP=1;R=249;
2017.05.19 21:38:56 4: sduino: Fingerprint for MU Protocol id 9 -> CTW 600 matches, trying to demodulate
2017.05.19 21:39:25 4: sduino/keepalive ok, retry = 0
2017.05.19 21:39:44 4: sduino/msg READ: MU;P0=-108;P1=220;P2=-982;P3=484;P4=1442;D=0123232324232423232323242424232424242323232324242423232423232424242423242424242423242424242424242323242424242424242424242423242324232424242424232423232423232423242323;CP=3;R=237;
2017.05.19 21:39:44 4: sduino: Fingerprint for MU Protocol id 9 -> CTW 600 matches, trying to demodulate
2017.05.19 21:39:44 4: sduino: decoded matched MU Protocol id 9 dmsg P9#EBC478D84101800A82DA8 length 84 RSSI = -83.5
2017.05.19 21:39:44 3: sduino: SD_WS09_Parse CRC_AUS:1 Model=WH1080
2017.05.19 21:39:44 3: sduino: SD_WS09_Parse0 Bin=111010111100010001111000110110000100000100000001100000000000101010000010110110101000 syncp=-1 length:84
2017.05.19 21:39:44 3: sduino: SD_WS09_Parse EXIT: msg=EBC478D84101800A82DA8 syncp=-1 length:84
2017.05.19 21:39:44 3: sduino: SD_WS09_Parse CRC_AUS:1 Model=WH1080
2017.05.19 21:39:44 3: sduino: SD_WS09_Parse0 Bin=111010111100010001111000110110000100000100000001100000000000101010000010110110101000 syncp=-1 length:84
2017.05.19 21:39:44 3: sduino: SD_WS09_Parse EXIT: msg=EBC478D84101800A82DA8 syncp=-1 length:84
2017.05.19 21:39:44 3: sduino: Unknown code P9#EBC478D84101800A82DA8, help me!
2017.05.19 21:40:25 4: sduino/keepalive ok, retry = 0
2017.05.19 21:40:32 4: sduino/msg READ: MU;P0=-31492;P1=484;P2=-989;P3=1450;D=01212121212121212321232121212123232321232323212121212323232121232121232323232123232323232321212323232323212123232323232323232323232123212321232323232321212123212123232321232101212121212121212321232121212123232321232323212121212323232121232121232323232123;CP=1;R=250;O;
2017.05.19 21:40:32 4: sduino: Fingerprint for MU Protocol id 9 -> CTW 600 matches, trying to demodulate
2017.05.19 21:40:32 4: sduino: decoded matched MU Protocol id 9 dmsg P9#FF5E23C6C2060C00541D88 length 88 RSSI = -77
2017.05.19 21:40:32 3: sduino: SD_WS09_Parse CRC_AUS:1 Model=WH1080
2017.05.19 21:40:32 3: sduino: SD_WS09_Parse0 Bin=1111111101011110001000111100011011000010000001100000110000000000010101000001110110001000 syncp=1 length:88
2017.05.19 21:40:32 3: sduino: SD_WS09_Parse4 Exit: msg=FF5E23C6C2060C00541D88 syncp=1 length:80
2017.05.19 21:40:32 3: sduino: SD_WS09_WH10 Exit:  off=WH1080 Model=undef
2017.05.19 21:40:32 3: sduino: SD_WS09_Parse CRC_AUS:1 Model=WH1080
2017.05.19 21:40:32 3: sduino: SD_WS09_Parse0 Bin=1111111101011110001000111100011011000010000001100000110000000000010101000001110110001000 syncp=1 length:88
2017.05.19 21:40:32 3: sduino: SD_WS09_Parse4 Exit: msg=FF5E23C6C2060C00541D88 syncp=1 length:80
2017.05.19 21:40:32 3: sduino: SD_WS09_WH10 Exit:  off=WH1080 Model=undef
2017.05.19 21:40:32 3: sduino: Unknown code P9#FF5E23C6C2060C00541D88, help me!
2017.05.19 21:40:32 4: sduino/msg READ: MU;P0=-985;P1=1450;P2=477;D=0101010101020201010101010202010101010101010101010102010201020101010101020202010202010101020102;CP=1;R=251;
2017.05.19 21:40:32 4: sduino: Fingerprint for MU Protocol id 9 -> CTW 600 matches, trying to demodulate
2017.05.19 21:41:20 4: sduino/msg READ: MU;P0=-32001;P1=487;P2=-982;P3=1451;D=012121212121212123212321212121232323212323232121212123232321212321212323232321232323232321232323232323232123212323232323232323232321232123212323232323212121232323232323232123;CP=1;R=250;
2017.05.19 21:41:20 4: sduino: Fingerprint for MU Protocol id 9 -> CTW 600 matches, trying to demodulate
2017.05.19 21:41:20 4: sduino: decoded matched MU Protocol id 9 dmsg P9#FF5E23C6C2080A00541C04 length 88 RSSI = -77
2017.05.19 21:41:20 3: sduino: SD_WS09_Parse CRC_AUS:1 Model=WH1080
2017.05.19 21:41:20 3: sduino: SD_WS09_Parse0 Bin=1111111101011110001000111100011011000010000010000000101000000000010101000001110000000100 syncp=1 length:88
2017.05.19 21:41:20 3: sduino: SD_WS09_Parse4 Exit: msg=FF5E23C6C2080A00541C04 syncp=1 length:80
2017.05.19 21:41:20 3: sduino: SD_WS09_WH10 Exit:  off=WH1080 Model=undef
2017.05.19 21:41:20 3: sduino: SD_WS09_Parse CRC_AUS:1 Model=WH1080
2017.05.19 21:41:20 3: sduino: SD_WS09_Parse0 Bin=1111111101011110001000111100011011000010000010000000101000000000010101000001110000000100 syncp=1 length:88
2017.05.19 21:41:20 3: sduino: SD_WS09_Parse4 Exit: msg=FF5E23C6C2080A00541C04 syncp=1 length:80
2017.05.19 21:41:20 3: sduino: SD_WS09_WH10 Exit:  off=WH1080 Model=undef
2017.05.19 21:41:20 3: sduino: Unknown code P9#FF5E23C6C2080A00541C04, help me!
2017.05.19 21:41:25 4: sduino/keepalive ok, retry = 0

Offline SabineT

  • Full Member
  • ***
  • Beiträge: 169
Antw:WH1080 Reichweite / Empfangsmöglichkeiten
« Antwort #7 am: 19 Mai 2017, 21:54:54 »
Danke an euch beiden.  Ich habe mal die Frequenzeinstellungen geändert siehe SabineT. Diese sind stark abweichend von meinem Default-Stand.
Ich denke mir halt, wenn ich die bWidth reduziere werden weniger andere Signale oder Störungen empfangen, die Wetterstation ist bei mir doch etwas weiter von Empfänger weg. Die Frequenz hatte ich mit einem SDR gemessen und dann übernommen.
Ich möchte aber bei Gelegenheit einen RaspberryPi+SignalDuino als "Remote FHEM" näher zur Wetterstation montieren.

Offline Ranseyer

  • Sr. Member
  • ****
  • Beiträge: 684
    • Homepage
Antw:WH1080 Reichweite / Empfangsmöglichkeiten
« Antwort #8 am: 19 Mai 2017, 23:41:48 »
SDR ist ne gute Idee... Das könnte ich morgen mal angehen.

Offline Ralf9

  • Developer
  • Hero Member
  • ****
  • Beiträge: 1797
Antw:WH1080 Reichweite / Empfangsmöglichkeiten
« Antwort #9 am: 20 Mai 2017, 00:13:57 »
Ergebnis: Letzte Wetterdaten sind von heute 11:40 Uhr.
In Deinem log passen einige Nachrichten, werden aber anscheinend vom Modul nicht als passende Nachrichten erkannt. Da sind im Modul noch ein paar Anpassungen notwendig.
Eine Nachricht ist ok, wenn am Anfang die folgende Bitfolge vorkommt "11111010" und die Nachricht mindestens 80 Bit lang ist

Gruß Ralf
FHEM auf Cubietruck mit Igor-Image, SSD und  hmland + HM-CFG-USB-2,  HMUARTLGW Lan,   HM-LC-Bl1PBU-FM, HM-CC-RT-DN, HM-SEC-SC-2, HM-MOD-Re-8, HM-MOD-Em-8
HM-Wired:  HMW_IO_12_FM, HMW_Sen_SC_12_DR, Selbstbau IO-Module
SIGNALduino

Offline Ranseyer

  • Sr. Member
  • ****
  • Beiträge: 684
    • Homepage
Antw:WH1080 Reichweite / Empfangsmöglichkeiten
« Antwort #10 am: 20 Mai 2017, 07:58:41 »
OK, daraus leite ich ab dass meine HW einigermaßen in Ordnung ist und ich auf Hilfe angewiesen bin. Ich warte mal ab und hoffe auf Hilfe...

Offline pejonp

  • Sr. Member
  • ****
  • Beiträge: 694
Antw:WH1080 Reichweite / Empfangsmöglichkeiten
« Antwort #11 am: 20 Mai 2017, 08:22:42 »
Hi ranseyer,

Stell mal  bitte crc_aus=2 dann werden auch crc-checks=49 als ok erkannt. bWidth steht bei mir auf 325khz. Wenn der Empfang schlecht ist kann es auch an der antennenanpassung liegen. Bzw setzt du auch wirklich ein 868 mhz cc1101 modul ein. https://wiki.fhem.de/wiki/Selbstbau_CUL

Wie ausgelastet ist dein fhem bzw. wieviele Fehler sind im log. Mit apptime kannst du feststellen wie ausgelastet dein System ist und welche Module etwas blockieren.

In deinem log habe ich auch verschiedene id der wh1080 gesehen. Hast du mehrere im Einsatz oder kommen diese aus der Nachbarschaft?
Kannst du mal verbose=5 beim signalduino modul aktivieren und dann den log Anhängen ?
Mehr fällt mir auch erst mal nicht ein.

Pejonp
BannanaPi+JeeLink (RFM69CW) 868MHz:WT440XH/WT470+TFA 30.3144.IT+TX37-IT+EMT7110+FS20
SignalDuino(CC1101):Bresser+HamaTS33C+WS-0101(868MHz WH1080)
MAX!:HM-MOD-UART:Rauchmelder HM-SEC-SD
VITOSOLIC 200 + RESOL VBUS-LAN
SolarEdge SE5K(TCP 24 RS485)+Sonnenbatterie ComfortS(Vera3)+TD3511+DRT710M(RS485

Offline Ranseyer

  • Sr. Member
  • ****
  • Beiträge: 684
    • Homepage
Antw:WH1080 Reichweite / Empfangsmöglichkeiten
« Antwort #12 am: 20 Mai 2017, 09:11:35 »
Ich habe nur eine WH1080. In der Vergangenheit habe ich nichts brauchbares von den Nachbarn empfangen. (Sonst hätte ich mir nichts gekauft :-) )
ed: Aber heute nutze ich eine etwas bessere Antenne...

Die Einstellungen siehe oben habe ich mal gemacht und ein paar Sekunden später aktuelle Daten in FHEM. Ich werde das ganz mal ne Weile laufen lassen und dann bei Bedarf noch ein weiteres Log posten.

Die Antenne scheint mir OK. (8,7cm plus ein Koax Röhrchen)
Der CC1101 ist jetzt im Schrumpschlauch etwas schlecht zu erkennen. Aber eigentlich habe ich schon immer darauf geachtet dass diese passen gemäß Wiki.

Mir scheint, das Problem ist behoben: ((?))
(Man sieht die Lücke zwischen gestern 12:00 Uhr und gerade)
2017-05-19_11:47:45 WH1080 windDirectionText: NW
2017-05-20_08:58:56 WH1080 id: 241
2017-05-20_08:58:56 WH1080 T: 15.9  H: 52  Ws: 0.7  Wg: 1.0  Wd: N  R: 12.6
2017-05-20_08:58:56 WH1080 temperature: 15.9
2017-05-20_08:58:56 WH1080 humidity: 52
2017-05-20_08:58:56 WH1080 battery: ok
2017-05-20_08:58:56 WH1080 rain: 12.6
2017-05-20_08:58:56 WH1080 windGust: 1.0
2017-05-20_08:58:56 WH1080 windSpeed: 0.7
2017-05-20_08:58:56 WH1080 windDirection: 0
2017-05-20_08:58:56 WH1080 windDirectionDegree: 0
2017-05-20_08:58:56 WH1080 windDirectionText: N
2017-05-20_08:59:44 WH1080 id: 241
2017-05-20_08:59:44 WH1080 T: 15.8  H: 52  Ws: 1.0  Wg: 1.4  Wd: NW  R: 12.6
2017-05-20_08:59:44 WH1080 temperature: 15.8
2017-05-20_08:59:44 WH1080 humidity: 52
2017-05-20_08:59:44 WH1080 battery: ok
2017-05-20_08:59:44 WH1080 rain: 12.6
2017-05-20_08:59:44 WH1080 windGust: 1.4
2017-05-20_08:59:44 WH1080 windSpeed: 1.0
2017-05-20_08:59:44 WH1080 windDirection: 14
2017-05-20_08:59:44 WH1080 windDirectionDegree: 315
2017-05-20_08:59:44 WH1080 windDirectionText: NW
2017-05-20_09:00:31 WH1080 id: 241
2017-05-20_09:00:31 WH1080 T: 15.7  H: 52  Ws: 1.0  Wg: 1.7  Wd: NW  R: 12.6
2017-05-20_09:00:31 WH1080 temperature: 15.7
2017-05-20_09:00:31 WH1080 humidity: 52
2017-05-20_09:00:31 WH1080 battery: ok
2017-05-20_09:00:31 WH1080 rain: 12.6
2017-05-20_09:00:31 WH1080 windGust: 1.7
2017-05-20_09:00:31 WH1080 windSpeed: 1.0
2017-05-20_09:00:31 WH1080 windDirection: 14
2017-05-20_09:00:31 WH1080 windDirectionDegree: 315
2017-05-20_09:00:31 WH1080 windDirectionText: NW
2017-05-20_09:01:20 WH1080 id: 241
2017-05-20_09:01:20 WH1080 T: 15.5  H: 53  Ws: 1.0  Wg: 1.7  Wd: NW  R: 12.6
2017-05-20_09:01:20 WH1080 temperature: 15.5
2017-05-20_09:01:20 WH1080 humidity: 53
2017-05-20_09:01:20 WH1080 battery: ok
2017-05-20_09:01:20 WH1080 rain: 12.6
2017-05-20_09:01:20 WH1080 windGust: 1.7
2017-05-20_09:01:20 WH1080 windSpeed: 1.0
2017-05-20_09:01:20 WH1080 windDirection: 14
2017-05-20_09:01:20 WH1080 windDirectionDegree: 315
2017-05-20_09:01:20 WH1080 windDirectionText: NW
2017-05-20_09:02:07 WH1080 id: 241
2017-05-20_09:02:07 WH1080 T: 15.5  H: 53  Ws: 0.7  Wg: 1.4  Wd: N  R: 12.6
2017-05-20_09:02:07 WH1080 temperature: 15.5
2017-05-20_09:02:07 WH1080 humidity: 53
2017-05-20_09:02:07 WH1080 battery: ok
2017-05-20_09:02:07 WH1080 rain: 12.6
2017-05-20_09:02:07 WH1080 windGust: 1.4
2017-05-20_09:02:07 WH1080 windSpeed: 0.7
2017-05-20_09:02:07 WH1080 windDirection: 0
2017-05-20_09:02:07 WH1080 windDirectionDegree: 0
2017-05-20_09:02:07 WH1080 windDirectionText: N
2017-05-20_09:03:43 WH1080 id: 241
2017-05-20_09:03:43 WH1080 T: 15.5  H: 54  Ws: 0.3  Wg: 0.7  Wd: S  R: 12.6
2017-05-20_09:03:43 WH1080 temperature: 15.5
2017-05-20_09:03:43 WH1080 humidity: 54
2017-05-20_09:03:43 WH1080 battery: ok
2017-05-20_09:03:43 WH1080 rain: 12.6
2017-05-20_09:03:43 WH1080 windGust: 0.7
2017-05-20_09:03:43 WH1080 windSpeed: 0.3
2017-05-20_09:03:43 WH1080 windDirection: 8
2017-05-20_09:03:43 WH1080 windDirectionDegree: 180
2017-05-20_09:03:43 WH1080 windDirectionText: S
2017-05-20_09:05:19 WH1080 id: 241
2017-05-20_09:05:19 WH1080 T: 15.7  H: 55  Ws: 0.7  Wg: 1.0  Wd: W  R: 12.6
2017-05-20_09:05:19 WH1080 temperature: 15.7
2017-05-20_09:05:19 WH1080 humidity: 55
2017-05-20_09:05:19 WH1080 battery: ok
2017-05-20_09:05:19 WH1080 rain: 12.6
2017-05-20_09:05:19 WH1080 windGust: 1.0
2017-05-20_09:05:19 WH1080 windSpeed: 0.7
2017-05-20_09:05:19 WH1080 windDirection: 12
2017-05-20_09:05:19 WH1080 windDirectionDegree: 270
2017-05-20_09:05:19 WH1080 windDirectionText: W
2017-05-20_09:06:08 WH1080 id: 241
2017-05-20_09:06:08 WH1080 T: 15.7  H: 54  Ws: 0.7  Wg: 1.0  Wd: W  R: 12.6
2017-05-20_09:06:08 WH1080 temperature: 15.7
2017-05-20_09:06:08 WH1080 humidity: 54
2017-05-20_09:06:08 WH1080 battery: ok
2017-05-20_09:06:08 WH1080 rain: 12.6
2017-05-20_09:06:08 WH1080 windGust: 1.0
2017-05-20_09:06:08 WH1080 windSpeed: 0.7
2017-05-20_09:06:08 WH1080 windDirection: 12
2017-05-20_09:06:08 WH1080 windDirectionDegree: 270
2017-05-20_09:06:08 WH1080 windDirectionText: W
2017-05-20_09:06:55 WH1080 id: 241
2017-05-20_09:06:55 WH1080 T: 15.9  H: 54  Ws: 0.0  Wg: 0.3  Wd: NE  R: 12.6
2017-05-20_09:06:55 WH1080 temperature: 15.9
2017-05-20_09:06:55 WH1080 humidity: 54
2017-05-20_09:06:55 WH1080 battery: ok
2017-05-20_09:06:55 WH1080 rain: 12.6
2017-05-20_09:06:55 WH1080 windGust: 0.3
2017-05-20_09:06:55 WH1080 windSpeed: 0.0
2017-05-20_09:06:55 WH1080 windDirection: 2
2017-05-20_09:06:55 WH1080 windDirectionDegree: 45
2017-05-20_09:06:55 WH1080 windDirectionText: NE
2017-05-20_09:07:44 WH1080 id: 241
2017-05-20_09:07:44 WH1080 T: 16  H: 54  Ws: 0.3  Wg: 0.7  Wd: NNE  R: 12.6
2017-05-20_09:07:44 WH1080 temperature: 16
2017-05-20_09:07:44 WH1080 humidity: 54
2017-05-20_09:07:44 WH1080 battery: ok
2017-05-20_09:07:44 WH1080 rain: 12.6
2017-05-20_09:07:44 WH1080 windGust: 0.7
2017-05-20_09:07:44 WH1080 windSpeed: 0.3
2017-05-20_09:07:44 WH1080 windDirection: 1
2017-05-20_09:07:44 WH1080 windDirectionDegree: 22.5
2017-05-20_09:07:44 WH1080 windDirectionText: NNE
2017.05.20 09:07:44 4: sduino: Fingerprint for MU Protocol id 9 -> CTW 600 matches, trying to demodulate
2017.05.20 09:07:44 5: sduino: Starting demodulation at Position 1
2017.05.20 09:07:44 5: sduino: dispatching bits: 1 1 1 1 1 1 1 1 0 1 0 1 1 1 1 0 0 0 1 0 0 1 0 0 0 1 1 0 0 0 0 0 0 1 1 0 1 1 0 0 0 0 0 0 0 0 1 0 0 0 0 0 0 1 0 0 0 0 0 0 0 0 0 0 0 1 0 1 0 1 0 0 0 0 0 0 0 0 1 1 0 1 0 1 0 0 0 0
2017.05.20 09:07:44 4: sduino: decoded matched MU Protocol id 9 dmsg P9#FF5E24606C020400540350 length 88 RSSI = -73.5
2017.05.20 09:07:44 5: sduino: converted Data to (P9#FF5E24606C020400540350)
2017.05.20 09:07:44 5: sduino: dispatch P9#FF5E24606C020400540350
2017.05.20 09:07:44 3: sduino: SD_WS09_Parse CRC_AUS:2 Model=WH1080
2017.05.20 09:07:44 3: sduino: SD_WS09_Parse0 Bin=1111111101011110001001000110000001101100000000100000010000000000010101000000001101010000 syncp=1 length:88
2017.05.20 09:07:44 3: sduino: SD_WS09_Parse sync2 msg=P9#FFAF1230360102002A01A8 syncp=1 length:88
2017.05.20 09:07:44 3: sduino: SD_WS09_Parse CRC_OK:  CRC=49 Model=WH1080 attr=WH1080
2017.05.20 09:07:44 3: sduino: SD_WS09_Parse WH=11111111 msg=10101111000100100011000000110110000000010000001000000000001010100000000110101000 syncp=1 length:80
2017.05.20 09:07:44 3: sduino: SD_WS09_Parse WH1080 id:241, Windspeed bit: 00000001 Dec: 0.3
2017.05.20 09:07:44 3: sduino: SD_WS09_Parse WH1080 id:241, Windguest bit: 00000010 Dec: 0.7
2017.05.20 09:07:44 3: sduino: SD_WS09_Parse WH1080 id:241, Rain bit: 00101010 Dec: 12.6
2017.05.20 09:07:44 3: sduino: SD_WS09_Parse WH1080 id:241, bat:ok, temp=16, hum=54, winddir=1:NNE wS=0.3, wG=0.7, rain=12.6
2017.05.20 09:07:44 3: sduino: SD_WS09_Parse WH1080 id:241 :10101111000100100011000000110110000000010000001000000000001010100000000110101000
2017.05.20 09:07:48 4: sduino/keepalive ok, retry = 0
2017.05.20 09:08:31 4: sduino/msg READ: MU;P0=-20160;P1=488;P2=-981;P3=348;P4=1464;P5=-30968;D=01232323212121212421242121212124242421242421242424212124242421242421212421212424242424242421242424242424242121242424242424242424242124212421242424242421242124242121212421242151212121212121212421242121212124242421242421242424212124242421242421212421212424;CP=1;R=0;O;
2017.05.20 09:08:31 4: sduino: Fingerprint for MU Protocol id 9 -> CTW 600 matches, trying to demodulate
2017.05.20 09:08:31 5: sduino: Starting demodulation at Position 1
2017.05.20 09:08:31 5: sduino: dispatching bits: 1 1 1 1 0 1 0 1 1 1 1 0 0 0 1 0 0 1 0 0 0 1 1 0 0 0 1 0 0 1 1 0 1 1 0 0 0 0 0 0 0 1 0 0 0 0 0 0 0 1 1 0 0 0 0 0 0 0 0 0 0 1 0 1 0 1 0 0 0 0 0 1 0 1 0 0 1 1 1 0 1 0 0 0
2017.05.20 09:08:31 4: sduino: decoded matched MU Protocol id 9 dmsg P9#F5E24626C0406005414E8 length 84 RSSI = -74
2017.05.20 09:08:31 5: sduino: converted Data to (P9#F5E24626C0406005414E8)
2017.05.20 09:08:31 5: sduino: dispatch P9#F5E24626C0406005414E8
2017.05.20 09:08:31 3: sduino: SD_WS09_Parse CRC_AUS:2 Model=WH1080
2017.05.20 09:08:31 3: sduino: SD_WS09_Parse0 Bin=111101011110001001000110001001101100000001000000011000000000010101000001010011101000 syncp=-1 length:84
2017.05.20 09:08:31 3: sduino: SD_WS09_Parse EXIT: msg=F5E24626C0406005414E8 syncp=-1 length:84
2017.05.20 09:08:31 3: sduino: SD_WS09_Parse CRC_AUS:2 Model=WH1080
2017.05.20 09:08:31 3: sduino: SD_WS09_Parse0 Bin=111101011110001001000110001001101100000001000000011000000000010101000001010011101000 syncp=-1 length:84
2017.05.20 09:08:31 3: sduino: SD_WS09_Parse EXIT: msg=F5E24626C0406005414E8 syncp=-1 length:84
2017.05.20 09:08:32 3: sduino: Unknown code P9#F5E24626C0406005414E8, help me!
2017.05.20 09:08:32 4: sduino/msg READ: MU;P0=-983;P1=1458;P2=476;D=0101010101020101010101010102020101010101010101010102010201020101010101020102010102020201020102;CP=1;R=1;
2017.05.20 09:08:32 4: sduino: Fingerprint for MU Protocol id 9 -> CTW 600 matches, trying to demodulate
2017.05.20 09:08:32 5: sduino: Starting demodulation at Position 1
2017.05.20 09:08:48 4: sduino/keepalive ok, retry = 0
2017.05.20 09:09:20 4: sduino/msg READ: MU;P0=-32001;P1=483;P2=-976;P4=1463;D=012121212121212124212421212121242424212424212424242121242421242424212124212124242424242424212424242424242421212424242424242424242421242124212424242424212424242424242121212421;CP=1;R=255;
2017.05.20 09:09:20 4: sduino: Fingerprint for MU Protocol id 9 -> CTW 600 matches, trying to demodulate
2017.05.20 09:09:20 5: sduino: Starting demodulation at Position 1
2017.05.20 09:09:20 5: sduino: dispatching bits: 1 1 1 1 1 1 1 1 0 1 0 1 1 1 1 0 0 0 1 0 0 1 0 0 0 1 1 0 0 1 0 0 0 1 1 0 1 1 0 0 0 0 0 0 0 1 0 0 0 0 0 0 0 1 1 0 0 0 0 0 0 0 0 0 0 1 0 1 0 1 0 0 0 0 0 1 0 0 0 0 0 0 1 1 1 0 0 0
2017.05.20 09:09:20 4: sduino: decoded matched MU Protocol id 9 dmsg P9#FF5E24646C040600541038 length 88 RSSI = -74.5
2017.05.20 09:09:20 5: sduino: converted Data to (P9#FF5E24646C040600541038)
2017.05.20 09:09:20 5: sduino: dispatch P9#FF5E24646C040600541038
2017.05.20 09:09:20 3: sduino: SD_WS09_Parse CRC_AUS:2 Model=WH1080
2017.05.20 09:09:20 3: sduino: SD_WS09_Parse0 Bin=1111111101011110001001000110010001101100000001000000011000000000010101000001000000111000 syncp=1 length:88
2017.05.20 09:09:20 3: sduino: SD_WS09_Parse sync2 msg=P9#FFAF1232360203002A081C syncp=1 length:88
2017.05.20 09:09:20 3: sduino: SD_WS09_Parse CRC_OK:  CRC=49 Model=WH1080 attr=WH1080
2017.05.20 09:09:20 3: sduino: SD_WS09_Parse WH=11111111 msg=10101111000100100011001000110110000000100000001100000000001010100000100000011100 syncp=1 length:80
2017.05.20 09:09:20 3: sduino: SD_WS09_Parse WH1080 id:241, Windspeed bit: 00000010 Dec: 0.7
2017.05.20 09:09:20 3: sduino: SD_WS09_Parse WH1080 id:241, Windguest bit: 00000011 Dec: 1.0
2017.05.20 09:09:20 3: sduino: SD_WS09_Parse WH1080 id:241, Rain bit: 00101010 Dec: 12.6
2017.05.20 09:09:20 3: sduino: SD_WS09_Parse WH1080 id:241, bat:ok, temp=16.2, hum=54, winddir=8:S wS=0.7, wG=1.0, rain=12.6
2017.05.20 09:09:20 3: sduino: SD_WS09_Parse WH1080 id:241 :10101111000100100011001000110110000000100000001100000000001010100000100000011100
2017.05.20 09:09:48 4: sduino/keepalive ok, retry = 0
2017.05.20 09:10:07 4: sduino/msg READ: MU;P0=-31486;P1=475;P2=-984;P3=1457;D=01212121212121212321232121212123232321232321232323212123232121232321212321212323232323232323212323232323232123232323232323232323232123212321232323232321232123232123232123232101212121212121212321232121212123232321232321232323212123232121232321212321212323;CP=1;R=0;O;
2017.05.20 09:10:07 4: sduino: Fingerprint for MU Protocol id 9 -> CTW 600 matches, trying to demodulate
2017.05.20 09:10:07 5: sduino: Starting demodulation at Position 1
2017.05.20 09:10:07 5: sduino: dispatching bits: 1 1 1 1 1 1 1 1 0 1 0 1 1 1 1 0 0 0 1 0 0 1 0 0 0 1 1 0 0 1 1 0 0 1 1 0 1 1 0 0 0 0 0 0 0 0 1 0 0 0 0 0 0 1 0 0 0 0 0 0 0 0 0 0 0 1 0 1 0 1 0 0 0 0 0 1 0 1 0 0 1 0 0 1 0 0 0 0
2017.05.20 09:10:07 4: sduino: decoded matched MU Protocol id 9 dmsg P9#FF5E24666C020400541490 length 88 RSSI = -74
2017.05.20 09:10:07 5: sduino: converted Data to (P9#FF5E24666C020400541490)
2017.05.20 09:10:07 5: sduino: dispatch P9#FF5E24666C020400541490
2017.05.20 09:10:07 3: sduino: SD_WS09_Parse CRC_AUS:2 Model=WH1080
2017.05.20 09:10:07 3: sduino: SD_WS09_Parse0 Bin=1111111101011110001001000110011001101100000000100000010000000000010101000001010010010000 syncp=1 length:88
2017.05.20 09:10:07 3: sduino: SD_WS09_Parse sync2 msg=P9#FFAF1233360102002A0A48 syncp=1 length:88
2017.05.20 09:10:07 3: sduino: SD_WS09_Parse CRC_OK:  CRC=49 Model=WH1080 attr=WH1080
2017.05.20 09:10:07 3: sduino: SD_WS09_Parse WH=11111111 msg=10101111000100100011001100110110000000010000001000000000001010100000101001001000 syncp=1 length:80
2017.05.20 09:10:07 3: sduino: SD_WS09_Parse WH1080 id:241, Windspeed bit: 00000001 Dec: 0.3
2017.05.20 09:10:07 3: sduino: SD_WS09_Parse WH1080 id:241, Windguest bit: 00000010 Dec: 0.7
2017.05.20 09:10:07 3: sduino: SD_WS09_Parse WH1080 id:241, Rain bit: 00101010 Dec: 12.6
2017.05.20 09:10:07 3: sduino: SD_WS09_Parse WH1080 id:241, bat:ok, temp=16.3, hum=54, winddir=10:SW wS=0.3, wG=0.7, rain=12.6
2017.05.20 09:10:07 3: sduino: SD_WS09_Parse WH1080 id:241 :10101111000100100011001100110110000000010000001000000000001010100000101001001000
2017.05.20 09:10:08 4: sduino/msg READ: MU;P0=-973;P1=1468;P2=471;D=0101010101010201010101010102010101010101010101010102010201020101010101020102010102010102010102;CP=1;R=0;
2017.05.20 09:10:08 4: sduino: Fingerprint for MU Protocol id 9 -> CTW 600 matches, trying to demodulate
2017.05.20 09:10:08 5: sduino: Starting demodulation at Position 1


Falls es aus Deiner Sicht keinen Handlungsbedarf mehr gibt würde ich verbose wieder abschalten und mich bedanken !
Oder möchtest Du noch weitere Infos haben ?

« Letzte Änderung: 20 Mai 2017, 09:26:09 von Ranseyer »

Offline pejonp

  • Sr. Member
  • ****
  • Beiträge: 694
Antw:WH1080 Reichweite / Empfangsmöglichkeiten
« Antwort #13 am: 20 Mai 2017, 14:27:58 »
@ranseyer

Du kannst verbose wieder umstellen, aber vorher vielleicht crc_aus auf 0. Würde mich mal interessieren ob dann auch noch so viele Nachrichten erkannt werden, oder ob jetzt vielleicht noch etwas am crc Check gemacht werden muss. Ich habe bei mir zwei  WS ( ws-0101 ubd wh1080) laufen, da wird crc mit crc_aus=0 alles richtig erkannt.
Danke.

Pejonp
BannanaPi+JeeLink (RFM69CW) 868MHz:WT440XH/WT470+TFA 30.3144.IT+TX37-IT+EMT7110+FS20
SignalDuino(CC1101):Bresser+HamaTS33C+WS-0101(868MHz WH1080)
MAX!:HM-MOD-UART:Rauchmelder HM-SEC-SD
VITOSOLIC 200 + RESOL VBUS-LAN
SolarEdge SE5K(TCP 24 RS485)+Sonnenbatterie ComfortS(Vera3)+TD3511+DRT710M(RS485

Offline Ranseyer

  • Sr. Member
  • ****
  • Beiträge: 684
    • Homepage
Antw:WH1080 Reichweite / Empfangsmöglichkeiten
« Antwort #14 am: 20 Mai 2017, 15:53:53 »
Mit CRC_aus auf "0" gibt es wieder weniger Datensätze:

2017-05-20_15:36:31 WH1080 id: 241
2017-05-20_15:36:31 WH1080 T: 16.9  H: 50  Ws: 2.0  Wg: 2.7  Wd: NW  R: 12.6
2017-05-20_15:36:31 WH1080 temperature: 16.9
2017-05-20_15:36:31 WH1080 humidity: 50
2017-05-20_15:36:31 WH1080 battery: ok
2017-05-20_15:36:31 WH1080 rain: 12.6
2017-05-20_15:36:31 WH1080 windGust: 2.7
2017-05-20_15:36:31 WH1080 windSpeed: 2.0
2017-05-20_15:36:31 WH1080 windDirection: 14
2017-05-20_15:36:31 WH1080 windDirectionDegree: 315
2017-05-20_15:36:31 WH1080 windDirectionText: NW
2017-05-20_15:37:19 WH1080 id: 241
2017-05-20_15:37:19 WH1080 T: 16.9  H: 50  Ws: 1.0  Wg: 1.0  Wd: SW  R: 12.6
2017-05-20_15:37:19 WH1080 temperature: 16.9
2017-05-20_15:37:19 WH1080 humidity: 50
2017-05-20_15:37:19 WH1080 battery: ok
2017-05-20_15:37:19 WH1080 rain: 12.6
2017-05-20_15:37:19 WH1080 windGust: 1.0
2017-05-20_15:37:19 WH1080 windSpeed: 1.0
2017-05-20_15:37:19 WH1080 windDirection: 10
2017-05-20_15:37:19 WH1080 windDirectionDegree: 225
2017-05-20_15:37:19 WH1080 windDirectionText: SW
2017-05-20_15:38:55 WH1080 id: 241
2017-05-20_15:38:55 WH1080 T: 17  H: 50  Ws: 1.4  Wg: 2.0  Wd: SW  R: 12.6
2017-05-20_15:38:55 WH1080 temperature: 17
2017-05-20_15:38:55 WH1080 humidity: 50
2017-05-20_15:38:55 WH1080 battery: ok
2017-05-20_15:38:55 WH1080 rain: 12.6
2017-05-20_15:38:55 WH1080 windGust: 2.0
2017-05-20_15:38:55 WH1080 windSpeed: 1.4
2017-05-20_15:38:55 WH1080 windDirection: 10
2017-05-20_15:38:55 WH1080 windDirectionDegree: 225
2017-05-20_15:38:55 WH1080 windDirectionText: SW
2017-05-20_15:40:31 WH1080 id: 241
2017-05-20_15:40:31 WH1080 T: 17.1  H: 51  Ws: 0.7  Wg: 1.0  Wd: N  R: 12.6
2017-05-20_15:40:31 WH1080 temperature: 17.1
2017-05-20_15:40:31 WH1080 humidity: 51
2017-05-20_15:40:31 WH1080 battery: ok
2017-05-20_15:40:31 WH1080 rain: 12.6
2017-05-20_15:40:31 WH1080 windGust: 1.0
2017-05-20_15:40:31 WH1080 windSpeed: 0.7
2017-05-20_15:40:31 WH1080 windDirection: 0
2017-05-20_15:40:31 WH1080 windDirectionDegree: 0
2017-05-20_15:40:31 WH1080 windDirectionText: N
2017-05-20_15:41:19 WH1080 id: 241
2017-05-20_15:41:19 WH1080 T: 17.1  H: 50  Ws: 0.3  Wg: 1.0  Wd: SW  R: 12.6
2017-05-20_15:41:19 WH1080 temperature: 17.1
2017-05-20_15:41:19 WH1080 humidity: 50
2017-05-20_15:41:19 WH1080 battery: ok
2017-05-20_15:41:19 WH1080 rain: 12.6
2017-05-20_15:41:19 WH1080 windGust: 1.0
2017-05-20_15:41:19 WH1080 windSpeed: 0.3
2017-05-20_15:41:19 WH1080 windDirection: 10
2017-05-20_15:41:19 WH1080 windDirectionDegree: 225
2017-05-20_15:41:19 WH1080 windDirectionText: SW
2017-05-20_15:45:19 WH1080 id: 241
2017-05-20_15:45:19 WH1080 T: 17.5  H: 47  Ws: 0.7  Wg: 1.0  Wd: NW  R: 12.6
2017-05-20_15:45:19 WH1080 temperature: 17.5
2017-05-20_15:45:19 WH1080 humidity: 47
2017-05-20_15:45:19 WH1080 battery: ok
2017-05-20_15:45:19 WH1080 rain: 12.6
2017-05-20_15:45:19 WH1080 windGust: 1.0
2017-05-20_15:45:19 WH1080 windSpeed: 0.7
2017-05-20_15:45:19 WH1080 windDirection: 14
2017-05-20_15:45:19 WH1080 windDirectionDegree: 315
2017-05-20_15:45:19 WH1080 windDirectionText: NW
2017-05-20_15:46:07 WH1080 id: 241
2017-05-20_15:46:07 WH1080 T: 17.5  H: 46  Ws: 1.7  Wg: 3.1  Wd: N  R: 12.6
2017-05-20_15:46:07 WH1080 temperature: 17.5
2017-05-20_15:46:07 WH1080 humidity: 46
2017-05-20_15:46:07 WH1080 battery: ok
2017-05-20_15:46:07 WH1080 rain: 12.6
2017-05-20_15:46:07 WH1080 windGust: 3.1
2017-05-20_15:46:07 WH1080 windSpeed: 1.7
2017-05-20_15:46:07 WH1080 windDirection: 0
2017-05-20_15:46:07 WH1080 windDirectionDegree: 0
2017-05-20_15:46:07 WH1080 windDirectionText: N
2017-05-20_15:48:31 WH1080 id: 241
2017-05-20_15:48:31 WH1080 T: 17.4  H: 50  Ws: 1.4  Wg: 2.4  Wd: SW  R: 12.6
2017-05-20_15:48:31 WH1080 temperature: 17.4
2017-05-20_15:48:31 WH1080 humidity: 50
2017-05-20_15:48:31 WH1080 battery: ok
2017-05-20_15:48:31 WH1080 rain: 12.6
2017-05-20_15:48:31 WH1080 windGust: 2.4
2017-05-20_15:48:31 WH1080 windSpeed: 1.4
2017-05-20_15:48:31 WH1080 windDirection: 10
2017-05-20_15:48:31 WH1080 windDirectionDegree: 225
2017-05-20_15:48:31 WH1080 windDirectionText: SW
2017-05-20_15:50:07 WH1080 id: 241
2017-05-20_15:50:07 WH1080 T: 17.4  H: 50  Ws: 1.7  Wg: 2.0  Wd: NW  R: 12.6
2017-05-20_15:50:07 WH1080 temperature: 17.4
2017-05-20_15:50:07 WH1080 humidity: 50
2017-05-20_15:50:07 WH1080 battery: ok
2017-05-20_15:50:07 WH1080 rain: 12.6
2017-05-20_15:50:07 WH1080 windGust: 2.0
2017-05-20_15:50:07 WH1080 windSpeed: 1.7
2017-05-20_15:50:07 WH1080 windDirection: 14
2017-05-20_15:50:07 WH1080 windDirectionDegree: 315
2017-05-20_15:50:07 WH1080 windDirectionText: NW

Das FHEM Log wo man häufig die CRC 49 sehen kann:
2017.05.20 15:48:31 4: sduino: Fingerprint for MU Protocol id 9 -> CTW 600 matches, trying to demodulate
2017.05.20 15:48:31 5: sduino: Starting demodulation at Position 1
2017.05.20 15:48:31 5: sduino: dispatching bits: 1 1 1 1 1 1 1 1 0 1 0 1 1 1 1 0 0 0 1 0 0 1 0 0 0 1 1 1 1 1 0 0 0 1 1 0 0 1 0 0 0 0 0 0 1 0 0 0 0 0 0 0 1 1 1 0 0 0 0 0 0 0 0 0 0 1 0 1 0 1 0 0 0 0 0 1 0 1 0 1 0 1 1 1 1 0 0 0
2017.05.20 15:48:31 4: sduino: decoded matched MU Protocol id 9 dmsg P9#FF5E247C64080E00541578 length 88 RSSI = -70
2017.05.20 15:48:31 5: sduino: converted Data to (P9#FF5E247C64080E00541578)
2017.05.20 15:48:31 5: sduino: dispatch P9#FF5E247C64080E00541578
2017.05.20 15:48:31 3: sduino: SD_WS09_Parse CRC_AUS:0 Model=WH1080
2017.05.20 15:48:31 3: sduino: SD_WS09_Parse0 Bin=1111111101011110001001000111110001100100000010000000111000000000010101000001010101111000 syncp=1 length:88
2017.05.20 15:48:31 3: sduino: SD_WS09_Parse sync2 msg=P9#FFAF123E320407002A0ABC syncp=1 length:88
2017.05.20 15:48:31 3: sduino: SD_WS09_Parse CRC_OK:  CRC=0 Model=WH1080 attr=WH1080
2017.05.20 15:48:31 3: sduino: SD_WS09_Parse WH=11111111 msg=10101111000100100011111000110010000001000000011100000000001010100000101010111100 syncp=1 length:80
2017.05.20 15:48:31 3: sduino: SD_WS09_Parse WH1080 id:241, Windspeed bit: 00000100 Dec: 1.4
2017.05.20 15:48:31 3: sduino: SD_WS09_Parse WH1080 id:241, Windguest bit: 00000111 Dec: 2.4
2017.05.20 15:48:31 3: sduino: SD_WS09_Parse WH1080 id:241, Rain bit: 00101010 Dec: 12.6
2017.05.20 15:48:31 3: sduino: SD_WS09_Parse WH1080 id:241, bat:ok, temp=17.4, hum=50, winddir=10:SW wS=1.4, wG=2.4, rain=12.6
2017.05.20 15:48:31 3: sduino: SD_WS09_Parse WH1080 id:241 :10101111000100100011111000110010000001000000011100000000001010100000101010111100
2017.05.20 15:48:31 4: sduino/msg READ: MU;P0=-984;P1=1458;P2=475;D=0101010102010101010101010202020101010101010101010102010201020101010101020102010201020202020101;CP=1;R=9;
2017.05.20 15:48:31 4: sduino: Fingerprint for MU Protocol id 9 -> CTW 600 matches, trying to demodulate
2017.05.20 15:48:31 5: sduino: Starting demodulation at Position 1
2017.05.20 15:48:49 4: sduino/keepalive ok, retry = 0
2017.05.20 15:49:19 4: sduino/msg READ: MU;P0=-32001;P1=537;P2=-980;P3=1462;P4=-2568;P6=-132;P7=132;D=0121212121212121232123212121212323232123232123232321212121212323232121232321232323232323232121232323232321232123232323232323232323212321232123232323232323232323232121212321214167;CP=1;R=9;
2017.05.20 15:49:19 4: sduino: Fingerprint for MU Protocol id 9 -> CTW 600 matches, trying to demodulate
2017.05.20 15:49:19 5: sduino: Starting demodulation at Position 1
2017.05.20 15:49:19 5: sduino: dispatching bits: 1 1 1 1 1 1 1 1 0 1 0 1 1 1 1 0 0 0 1 0 0 1 0 0 0 1 1 1 1 1 0 0 0 1 1 0 0 1 0 0 0 0 0 0 0 1 1 0 0 0 0 0 1 0 1 0 0 0 0 0 0 0 0 0 0 1 0 1 0 1 0 0 0 0 0 0 0 0 0 0 0 1 1 1 0 1 0 0
2017.05.20 15:49:19 4: sduino: decoded matched MU Protocol id 9 dmsg P9#FF5E247C64060A00540074 length 88 RSSI = -69.5
2017.05.20 15:49:19 5: sduino: converted Data to (P9#FF5E247C64060A00540074)
2017.05.20 15:49:19 5: sduino: dispatch P9#FF5E247C64060A00540074
2017.05.20 15:49:19 3: sduino: SD_WS09_Parse CRC_AUS:0 Model=WH1080
2017.05.20 15:49:19 3: sduino: SD_WS09_Parse0 Bin=1111111101011110001001000111110001100100000001100000101000000000010101000000000001110100 syncp=1 length:88
2017.05.20 15:49:19 3: sduino: SD_WS09_Parse sync2 msg=P9#FFAF123E320305002A003A syncp=1 length:88
2017.05.20 15:49:19 3: sduino: SD_WS09_Parse CRC_Error:  msg=P9#FFAF123E320305002A003A CRC=49
2017.05.20 15:49:19 3: sduino: SD_WS09_Parse CRC_AUS:0 Model=WH1080
2017.05.20 15:49:19 3: sduino: SD_WS09_Parse0 Bin=1111111101011110001001000111110001100100000001100000101000000000010101000000000001110100 syncp=1 length:88
2017.05.20 15:49:19 3: sduino: SD_WS09_Parse sync2 msg=P9#FFAF123E320305002A003A syncp=1 length:88
2017.05.20 15:49:19 3: sduino: SD_WS09_Parse CRC_Error:  msg=P9#FFAF123E320305002A003A CRC=49
2017.05.20 15:49:19 3: sduino: Unknown code P9#FF5E247C64060A00540074, help me!
2017.05.20 15:49:49 4: sduino/keepalive ok, retry = 0
2017.05.20 15:50:07 4: sduino/msg READ: MU;P0=-31490;P1=491;P2=-974;P3=1464;D=01212121212121212321232121212123232321232321232323212121212123232321212323212323232323232123212323232323212123232323232323232323232123212321232323232321212123232321212323232301212121212121212321232121212123232321232321232323212121212123232321212323212323;CP=1;R=1;O;
2017.05.20 15:50:07 4: sduino: Fingerprint for MU Protocol id 9 -> CTW 600 matches, trying to demodulate
2017.05.20 15:50:07 5: sduino: Starting demodulation at Position 1
2017.05.20 15:50:07 5: sduino: dispatching bits: 1 1 1 1 1 1 1 1 0 1 0 1 1 1 1 0 0 0 1 0 0 1 0 0 0 1 1 1 1 1 0 0 0 1 1 0 0 1 0 0 0 0 0 0 1 0 1 0 0 0 0 0 1 1 0 0 0 0 0 0 0 0 0 0 0 1 0 1 0 1 0 0 0 0 0 1 1 1 0 0 0 1 1 0 0 0 0 0
2017.05.20 15:50:07 4: sduino: decoded matched MU Protocol id 9 dmsg P9#FF5E247C640A0C00541C60 length 88 RSSI = -73.5
2017.05.20 15:50:07 5: sduino: converted Data to (P9#FF5E247C640A0C00541C60)
2017.05.20 15:50:07 5: sduino: dispatch P9#FF5E247C640A0C00541C60
2017.05.20 15:50:07 3: sduino: SD_WS09_Parse CRC_AUS:0 Model=WH1080
2017.05.20 15:50:07 3: sduino: SD_WS09_Parse0 Bin=1111111101011110001001000111110001100100000010100000110000000000010101000001110001100000 syncp=1 length:88
2017.05.20 15:50:07 3: sduino: SD_WS09_Parse sync2 msg=P9#FFAF123E320506002A0E30 syncp=1 length:88
2017.05.20 15:50:07 3: sduino: SD_WS09_Parse CRC_OK:  CRC=0 Model=WH1080 attr=WH1080
2017.05.20 15:50:07 3: sduino: SD_WS09_Parse WH=11111111 msg=10101111000100100011111000110010000001010000011000000000001010100000111000110000 syncp=1 length:80
2017.05.20 15:50:07 3: sduino: SD_WS09_Parse WH1080 id:241, Windspeed bit: 00000101 Dec: 1.7
2017.05.20 15:50:07 3: sduino: SD_WS09_Parse WH1080 id:241, Windguest bit: 00000110 Dec: 2.0
2017.05.20 15:50:07 3: sduino: SD_WS09_Parse WH1080 id:241, Rain bit: 00101010 Dec: 12.6
2017.05.20 15:50:07 3: sduino: SD_WS09_Parse WH1080 id:241, bat:ok, temp=17.4, hum=50, winddir=14:NW wS=1.7, wG=2.0, rain=12.6
2017.05.20 15:50:07 3: sduino: SD_WS09_Parse WH1080 id:241 :10101111000100100011111000110010000001010000011000000000001010100000111000110000
2017.05.20 15:50:07 4: sduino/msg READ: MU;P0=-973;P1=1470;P2=486;D=0101010102010201010101010202010101010101010101010102010201020101010101020202010101020201010101;CP=1;R=6;
2017.05.20 15:50:07 4: sduino: Fingerprint for MU Protocol id 9 -> CTW 600 matches, trying to demodulate
2017.05.20 15:50:07 5: sduino: Starting demodulation at Position 1
2017.05.20 15:50:49 4: sduino/keepalive ok, retry = 0
2017.05.20 15:50:55 4: sduino/msg READ: MU;P0=-18112;P1=475;P2=-987;P3=1456;D=012121212121212123212321212121232323212323212323232121212123212323212123232121232323232321232323232323232123212323232323232323232321232123212323232323212323232123232323212323;CP=1;R=14;
2017.05.20 15:50:55 4: sduino: Fingerprint for MU Protocol id 9 -> CTW 600 matches, trying to demodulate
2017.05.20 15:50:55 5: sduino: Starting demodulation at Position 1
2017.05.20 15:50:55 5: sduino: dispatching bits: 1 1 1 1 1 1 1 1 0 1 0 1 1 1 1 0 0 0 1 0 0 1 0 0 0 1 1 1 1 0 1 0 0 1 1 0 0 1 1 0 0 0 0 0 1 0 0 0 0 0 0 0 1 0 1 0 0 0 0 0 0 0 0 0 0 1 0 1 0 1 0 0 0 0 0 1 0 0 0 1 0 0 0 0 1 0 0 0
2017.05.20 15:50:55 4: sduino: decoded matched MU Protocol id 9 dmsg P9#FF5E247A66080A00541108 length 88 RSSI = -67
2017.05.20 15:50:55 5: sduino: converted Data to (P9#FF5E247A66080A00541108)
2017.05.20 15:50:55 5: sduino: dispatch P9#FF5E247A66080A00541108
2017.05.20 15:50:55 3: sduino: SD_WS09_Parse CRC_AUS:0 Model=WH1080
2017.05.20 15:50:55 3: sduino: SD_WS09_Parse0 Bin=1111111101011110001001000111101001100110000010000000101000000000010101000001000100001000 syncp=1 length:88
2017.05.20 15:50:55 3: sduino: SD_WS09_Parse sync2 msg=P9#FFAF123D330405002A0884 syncp=1 length:88
2017.05.20 15:50:55 3: sduino: SD_WS09_Parse CRC_OK:  CRC=0 Model=WH1080 attr=WH1080
2017.05.20 15:50:55 3: sduino: SD_WS09_Parse WH=11111111 msg=10101111000100100011110100110011000001000000010100000000001010100000100010000100 syncp=1 length:80
2017.05.20 15:50:55 3: sduino: SD_WS09_Parse WH1080 id:241, Windspeed bit: 00000100 Dec: 1.4
2017.05.20 15:50:55 3: sduino: SD_WS09_Parse WH1080 id:241, Windguest bit: 00000101 Dec: 1.7
2017.05.20 15:50:55 3: sduino: SD_WS09_Parse WH1080 id:241, Rain bit: 00101010 Dec: 12.6
2017.05.20 15:50:55 3: sduino: SD_WS09_Parse WH1080 id:241, bat:ok, temp=17.3, hum=51, winddir=8:S wS=1.4, wG=1.7, rain=12.6
2017.05.20 15:50:55 3: sduino: SD_WS09_Parse WH1080 id:241 :10101111000100100011110100110011000001000000010100000000001010100000100010000100
2017.05.20 15:51:43 4: sduino/msg READ: MU;P0=-31494;P1=487;P2=-982;P3=1457;D=01212121212121212321232121212123232321232321232323212121212321232321212323212123232323232321232323232323212323232323232323232323232123212321232323232321212123232321212323232101212121212121212321232121212123232321232321232323212121212321232321212323212123;CP=1;R=13;O;
2017.05.20 15:51:43 4: sduino: Fingerprint for MU Protocol id 9 -> CTW 600 matches, trying to demodulate
2017.05.20 15:51:43 5: sduino: Starting demodulation at Position 1
2017.05.20 15:51:43 5: sduino: dispatching bits: 1 1 1 1 1 1 1 1 0 1 0 1 1 1 1 0 0 0 1 0 0 1 0 0 0 1 1 1 1 0 1 0 0 1 1 0 0 1 1 0 0 0 0 0 0 1 0 0 0 0 0 0 1 0 0 0 0 0 0 0 0 0 0 0 0 1 0 1 0 1 0 0 0 0 0 1 1 1 0 0 0 1 1 0 0 0 0 0
2017.05.20 15:51:43 4: sduino: decoded matched MU Protocol id 9 dmsg P9#FF5E247A66040800541C60 length 88 RSSI = -67.5
2017.05.20 15:51:43 5: sduino: converted Data to (P9#FF5E247A66040800541C60)
2017.05.20 15:51:43 5: sduino: dispatch P9#FF5E247A66040800541C60
2017.05.20 15:51:43 3: sduino: SD_WS09_Parse CRC_AUS:0 Model=WH1080
2017.05.20 15:51:43 3: sduino: SD_WS09_Parse0 Bin=1111111101011110001001000111101001100110000001000000100000000000010101000001110001100000 syncp=1 length:88
2017.05.20 15:51:43 3: sduino: SD_WS09_Parse sync2 msg=P9#FFAF123D330204002A0E30 syncp=1 length:88
2017.05.20 15:51:43 3: sduino: SD_WS09_Parse CRC_Error:  msg=P9#FFAF123D330204002A0E30 CRC=49
2017.05.20 15:51:43 3: sduino: SD_WS09_Parse CRC_AUS:0 Model=WH1080
2017.05.20 15:51:43 3: sduino: SD_WS09_Parse0 Bin=1111111101011110001001000111101001100110000001000000100000000000010101000001110001100000 syncp=1 length:88
2017.05.20 15:51:43 3: sduino: SD_WS09_Parse sync2 msg=P9#FFAF123D330204002A0E30 syncp=1 length:88
2017.05.20 15:51:43 3: sduino: SD_WS09_Parse CRC_Error:  msg=P9#FFAF123D330204002A0E30 CRC=49
2017.05.20 15:51:43 3: sduino: Unknown code P9#FF5E247A66040800541C60, help me!
2017.05.20 15:51:43 4: sduino/msg READ: MU;P0=-977;P1=1460;P2=492;D=0101010101020101010101010201010101010101010101010102010201020101010101020202010101020201010102;CP=1;R=12;
2017.05.20 15:51:43 4: sduino: Fingerprint for MU Protocol id 9 -> CTW 600 matches, trying to demodulate
2017.05.20 15:51:43 5: sduino: Starting demodulation at Position 1
2017.05.20 15:51:49 4: sduino/keepalive ok, retry = 0
2017.05.20 15:52:31 4: sduino/msg READ: MU;P0=-5324;P1=482;P2=-978;P3=1464;D=012121212121212123212321212121232323212323212323232121212121232323212123232121232323232323212323232323232123212323232323232323232321232123212323232323212121232123212323232323;CP=1;R=18;
2017.05.20 15:52:31 4: sduino: Fingerprint for MU Protocol id 9 -> CTW 600 matches, trying to demodulate
2017.05.20 15:52:31 5: sduino: Starting demodulation at Position 1
2017.05.20 15:52:31 5: sduino: dispatching bits: 1 1 1 1 1 1 1 1 0 1 0 1 1 1 1 0 0 0 1 0 0 1 0 0 0 1 1 1 1 1 0 0 0 1 1 0 0 1 1 0 0 0 0 0 0 1 0 0 0 0 0 0 1 0 1 0 0 0 0 0 0 0 0 0 0 1 0 1 0 1 0 0 0 0 0 1 1 1 0 1 0 1 0 0 0 0 0 0
2017.05.20 15:52:31 4: sduino: decoded matched MU Protocol id 9 dmsg P9#FF5E247C66040A00541D40 length 88 RSSI = -65
2017.05.20 15:52:31 5: sduino: converted Data to (P9#FF5E247C66040A00541D40)
2017.05.20 15:52:31 5: sduino: dispatch P9#FF5E247C66040A00541D40
2017.05.20 15:52:31 3: sduino: SD_WS09_Parse CRC_AUS:0 Model=WH1080
2017.05.20 15:52:31 3: sduino: SD_WS09_Parse0 Bin=1111111101011110001001000111110001100110000001000000101000000000010101000001110101000000 syncp=1 length:88
2017.05.20 15:52:31 3: sduino: SD_WS09_Parse sync2 msg=P9#FFAF123E330205002A0EA0 syncp=1 length:88
2017.05.20 15:52:31 3: sduino: SD_WS09_Parse CRC_OK:  CRC=0 Model=WH1080 attr=WH1080
2017.05.20 15:52:31 3: sduino: SD_WS09_Parse WH=11111111 msg=10101111000100100011111000110011000000100000010100000000001010100000111010100000 syncp=1 length:80
2017.05.20 15:52:31 3: sduino: SD_WS09_Parse WH1080 id:241, Windspeed bit: 00000010 Dec: 0.7
2017.05.20 15:52:31 3: sduino: SD_WS09_Parse WH1080 id:241, Windguest bit: 00000101 Dec: 1.7
2017.05.20 15:52:31 3: sduino: SD_WS09_Parse WH1080 id:241, Rain bit: 00101010 Dec: 12.6
2017.05.20 15:52:31 3: sduino: SD_WS09_Parse WH1080 id:241, bat:ok, temp=17.4, hum=51, winddir=14:NW wS=0.7, wG=1.7, rain=12.6
2017.05.20 15:52:31 3: sduino: SD_WS09_Parse WH1080 id:241 :10101111000100100011111000110011000000100000010100000000001010100000111010100000